Wetterdaten: Sonntag, 29.09.2013
Datum Zeit Temp. Aussen +5cm Feuchte Auss Luftdruck Regen Sonnenschein Regendauer UV Solar Windben
29.09.2013 00:00 10,8 C 9,4 C 78 % 1010,7 hPa 0,0 l/m 0 min 0 min 0,0 UV-I 0 W/m 0,0 km/h (0 Bft)
29.09.2013 00:02 10,7 C 8,9 C 78 % 1010,8 hPa 0,0 l/m 0 min 0 min 0,0 UV-I 0 W/m 0,0 km/h (0 Bft)
29.09.2013 00:06 10,7 C 8,9 C 78 % 1010,8 hPa 0,0 l/m 0 min 0 min 0,0 UV-I 0 W/m 0,0 km/h (0 Bft)
29.09.2013 00:08 10,7 C 8,9 C 78 % 1010,7 hPa 0,0 l/m 0 min 0 min 0,0 UV-I 0 W/m 0,0 km/h (0 Bft)
29.09.2013 00:10 10,6 C 8,9 C 78 % 1010,7 hPa 0,0 l/m 0 min 0 min 0,0 UV-I 0 W/m 2,6 km/h (1 Bft)
29.09.2013 00:12 10,6 C 8,9 C 78 % 1010,7 hPa 0,0 l/m 0 min 0 min 0,0 UV-I 0 W/m 0,0 km/h (0 Bft)
29.09.2013 00:14 10,6 C 8,9 C 78 % 1010,7 hPa 0,0 l/m 0 min 0 min 0,0 UV-I 0 W/m 0,0 km/h (0 Bft)
29.09.2013 00:16 10,6 C 8,9 C 79 % 1010,8 hPa 0,0 l/m 0 min 0 min 0,0 UV-I 0 W/m 0,0 km/h (0 Bft)
29.09.2013 00:18 10,5 C 8,9 C 79 % 1010,7 hPa 0,0 l/m 0 min 0 min 0,0 UV-I 0 W/m 2,6 km/h (1 Bft)
29.09.2013 00:20 10,5 C 8,9 C 78 % 1010,7 hPa 0,0 l/m 0 min 0 min 0,0 UV-I 0 W/m 2,6 km/h (1 Bft)
29.09.2013 00:22 10,5 C 8,9 C 78 % 1010,7 hPa 0,0 l/m 0 min 0 min 0,0 UV-I 0 W/m 5,1 km/h (1 Bft)
29.09.2013 00:24 10,6 C 8,9 C 78 % 1010,7 hPa 0,0 l/m 0 min 0 min 0,0 UV-I 0 W/m 5,1 km/h (1 Bft)
29.09.2013 00:26 10,6 C 8,9 C 78 % 1010,6 hPa 0,0 l/m 0 min 0 min 0,0 UV-I 0 W/m 0,0 km/h (0 Bft)
29.09.2013 00:28 10,5 C 8,9 C 78 % 1010,6 hPa 0,0 l/m 0 min 0 min 0,0 UV-I 0 W/m 0,0 km/h (0 Bft)
29.09.2013 00:30 10,5 C 8,9 C 78 % 1010,6 hPa 0,0 l/m 0 min 0 min 0,0 UV-I 0 W/m 0,0 km/h (0 Bft)
29.09.2013 00:32 10,4 C 8,9 C 78 % 1010,6 hPa 0,0 l/m 0 min 0 min 0,0 UV-I 0 W/m 0,0 km/h (0 Bft)
29.09.2013 00:34 10,4 C 8,9 C 78 % 1010,6 hPa 0,0 l/m 0 min 0 min 0,0 UV-I 0 W/m 0,0 km/h (0 Bft)
29.09.2013 00:36 10,4 C 8,9 C 78 % 1010,7 hPa 0,0 l/m 0 min 0 min 0,0 UV-I 0 W/m 5,1 km/h (1 Bft)
29.09.2013 00:38 10,4 C 8,9 C 78 % 1010,7 hPa 0,0 l/m 0 min 0 min 0,0 UV-I 0 W/m 0,0 km/h (0 Bft)
29.09.2013 00:40 10,4 C 8,9 C 78 % 1010,7 hPa 0,0 l/m 0 min 0 min 0,0 UV-I 0 W/m 0,0 km/h (0 Bft)
29.09.2013 00:42 10,4 C 8,9 C 78 % 1010,7 hPa 0,0 l/m 0 min 0 min 0,0 UV-I 0 W/m 5,1 km/h (1 Bft)
29.09.2013 00:44 10,4 C 8,9 C 78 % 1010,7 hPa 0,0 l/m 0 min 0 min 0,0 UV-I 0 W/m 0,0 km/h (0 Bft)
29.09.2013 00:46 10,4 C 8,9 C 78 % 1010,7 hPa 0,0 l/m 0 min 0 min 0,0 UV-I 0 W/m 5,1 km/h (1 Bft)
29.09.2013 00:48 10,4 C 8,9 C 78 % 1010,7 hPa 0,0 l/m 0 min 0 min 0,0 UV-I 0 W/m 2,6 km/h (1 Bft)
29.09.2013 00:50 10,4 C 8,9 C 78 % 1010,7 hPa 0,0 l/m 0 min 0 min 0,0 UV-I 0 W/m 0,0 km/h (0 Bft)
29.09.2013 00:52 10,4 C 8,9 C 78 % 1010,7 hPa 0,0 l/m 0 min 0 min 0,0 UV-I 0 W/m 0,0 km/h (0 Bft)
29.09.2013 00:54 10,4 C 8,9 C 78 % 1010,7 hPa 0,0 l/m 0 min 0 min 0,0 UV-I 0 W/m 0,0 km/h (0 Bft)
29.09.2013 00:56 10,3 C 8,9 C 78 % 1010,7 hPa 0,0 l/m 0 min 0 min 0,0 UV-I 0 W/m 0,0 km/h (0 Bft)
29.09.2013 00:58 10,3 C 8,9 C 78 % 1010,7 hPa 0,0 l/m 0 min 0 min 0,0 UV-I 0 W/m 2,6 km/h (1 Bft)
29.09.2013 01:00 10,2 C 8,9 C 79 % 1010,6 hPa 0,0 l/m 0 min 0 min 0,0 UV-I 0 W/m 0,0 km/h (0 Bft)
29.09.2013 01:02 10,2 C 8,9 C 79 % 1010,7 hPa 0,0 l/m 0 min 0 min 0,0 UV-I 0 W/m 2,6 km/h (1 Bft)
29.09.2013 01:06 10,2 C 8,9 C 79 % 1010,6 hPa 0,0 l/m 0 min 0 min 0,0 UV-I 0 W/m 10,3 km/h (2 Bft)
29.09.2013 01:08 10,1 C 8,3 C 79 % 1010,7 hPa 0,0 l/m 0 min 0 min 0,0 UV-I 0 W/m 0,0 km/h (0 Bft)
29.09.2013 01:10 10,0 C 8,3 C 80 % 1010,6 hPa 0,0 l/m 0 min 0 min 0,0 UV-I 0 W/m 0,0 km/h (0 Bft)
29.09.2013 01:12 9,9 C 8,3 C 80 % 1010,6 hPa 0,0 l/m 0 min 0 min 0,0 UV-I 0 W/m 0,0 km/h (0 Bft)
29.09.2013 01:14 9,9 C 8,3 C 80 % 1010,6 hPa 0,0 l/m 0 min 0 min 0,0 UV-I 0 W/m 0,0 km/h (0 Bft)
29.09.2013 01:16 9,9 C 8,3 C 80 % 1010,6 hPa 0,0 l/m 0 min 0 min 0,0 UV-I 0 W/m 2,6 km/h (1 Bft)
29.09.2013 01:18 9,9 C 8,3 C 80 % 1010,6 hPa 0,0 l/m 0 min 0 min 0,0 UV-I 0 W/m 0,0 km/h (0 Bft)
29.09.2013 01:20 9,9 C 8,3 C 80 % 1010,6 hPa 0,0 l/m 0 min 0 min 0,0 UV-I 0 W/m 0,0 km/h (0 Bft)
29.09.2013 01:22 9,9 C 8,3 C 80 % 1010,6 hPa 0,0 l/m 0 min 0 min 0,0 UV-I 0 W/m 0,0 km/h (0 Bft)
29.09.2013 01:24 9,9 C 8,3 C 80 % 1010,6 hPa 0,0 l/m 0 min 0 min 0,0 UV-I 0 W/m 0,0 km/h (0 Bft)
29.09.2013 01:26 9,8 C 8,3 C 80 % 1010,6 hPa 0,0 l/m 0 min 0 min 0,0 UV-I 0 W/m 0,0 km/h (0 Bft)
29.09.2013 01:28 9,8 C 8,3 C 80 % 1010,6 hPa 0,0 l/m 0 min 0 min 0,0 UV-I 0 W/m 0,0 km/h (0 Bft)
29.09.2013 01:30 9,8 C 8,3 C 80 % 1010,6 hPa 0,0 l/m 0 min 0 min 0,0 UV-I 0 W/m 0,0 km/h (0 Bft)
29.09.2013 01:32 9,8 C 8,3 C 80 % 1010,5 hPa 0,0 l/m 0 min 0 min 0,0 UV-I 0 W/m 0,0 km/h (0 Bft)
29.09.2013 01:34 9,7 C 8,3 C 80 % 1010,5 hPa 0,0 l/m 0 min 0 min 0,0 UV-I 0 W/m 0,0 km/h (0 Bft)
29.09.2013 01:36 9,7 C 8,3 C 81 % 1010,5 hPa 0,0 l/m 0 min 0 min 0,0 UV-I 0 W/m 0,0 km/h (0 Bft)
29.09.2013 01:38 9,7 C 8,3 C 81 % 1010,5 hPa 0,0 l/m 0 min 0 min 0,0 UV-I 0 W/m 2,6 km/h (1 Bft)
29.09.2013 01:40 9,6 C 8,3 C 81 % 1010,5 hPa 0,0 l/m 0 min 0 min 0,0 UV-I 0 W/m 0,0 km/h (0 Bft)
29.09.2013 01:42 9,6 C 8,3 C 81 % 1010,5 hPa 0,0 l/m 0 min 0 min 0,0 UV-I 0 W/m 0,0 km/h (0 Bft)
29.09.2013 01:44 9,6 C 8,3 C 81 % 1010,6 hPa 0,0 l/m 0 min 0 min 0,0 UV-I 0 W/m 0,0 km/h (0 Bft)
29.09.2013 01:46 9,6 C 8,3 C 81 % 1010,5 hPa 0,0 l/m 0 min 0 min 0,0 UV-I 0 W/m 0,0 km/h (0 Bft)
29.09.2013 01:48 9,6 C 8,3 C 81 % 1010,5 hPa 0,0 l/m 0 min 0 min 0,0 UV-I 0 W/m 2,6 km/h (1 Bft)
29.09.2013 01:50 9,5 C 8,3 C 82 % 1010,5 hPa 0,0 l/m 0 min 0 min 0,0 UV-I 0 W/m 0,0 km/h (0 Bft)
29.09.2013 01:52 9,5 C 7,8 C 82 % 1010,6 hPa 0,0 l/m 0 min 0 min 0,0 UV-I 0 W/m 0,0 km/h (0 Bft)
29.09.2013 01:54 9,5 C 7,8 C 82 % 1010,5 hPa 0,0 l/m 0 min 0 min 0,0 UV-I 0 W/m 2,6 km/h (1 Bft)
29.09.2013 01:56 9,5 C 7,8 C 82 % 1010,6 hPa 0,0 l/m 0 min 0 min 0,0 UV-I 0 W/m 0,0 km/h (0 Bft)
29.09.2013 01:58 9,4 C 7,8 C 82 % 1010,6 hPa 0,0 l/m 0 min 0 min 0,0 UV-I 0 W/m 0,0 km/h (0 Bft)
29.09.2013 02:00 9,4 C 7,8 C 82 % 1010,6 hPa 0,0 l/m 0 min 0 min 0,0 UV-I 0 W/m 0,0 km/h (0 Bft)
29.09.2013 02:02 9,4 C 7,8 C 82 % 1010,6 hPa 0,0 l/m 0 min 0 min 0,0 UV-I 0 W/m 0,0 km/h (0 Bft)
29.09.2013 02:06 9,4 C 7,8 C 82 % 1010,6 hPa 0,0 l/m 0 min 0 min 0,0 UV-I 0 W/m 2,6 km/h (1 Bft)
29.09.2013 02:08 9,3 C 7,8 C 82 % 1010,6 hPa 0,0 l/m 0 min 0 min 0,0 UV-I 0 W/m 5,1 km/h (1 Bft)
29.09.2013 02:10 9,3 C 7,8 C 82 % 1010,5 hPa 0,0 l/m 0 min 0 min 0,0 UV-I 0 W/m 2,6 km/h (1 Bft)
29.09.2013 02:12 9,3 C 7,8 C 83 % 1010,6 hPa 0,0 l/m 0 min 0 min 0,0 UV-I 0 W/m 0,0 km/h (0 Bft)
29.09.2013 02:14 9,3 C 7,8 C 83 % 1010,6 hPa 0,0 l/m 0 min 0 min 0,0 UV-I 0 W/m 0,0 km/h (0 Bft)
29.09.2013 02:16 9,3 C 7,8 C 83 % 1010,6 hPa 0,0 l/m 0 min 0 min 0,0 UV-I 0 W/m 0,0 km/h (0 Bft)
29.09.2013 02:18 9,2 C 7,8 C 83 % 1010,6 hPa 0,0 l/m 0 min 0 min 0,0 UV-I 0 W/m 2,6 km/h (1 Bft)
29.09.2013 02:20 9,2 C 7,8 C 83 % 1010,5 hPa 0,0 l/m 0 min 0 min 0,0 UV-I 0 W/m 0,0 km/h (0 Bft)
29.09.2013 02:22 9,2 C 7,8 C 83 % 1010,5 hPa 0,0 l/m 0 min 0 min 0,0 UV-I 0 W/m 0,0 km/h (0 Bft)
29.09.2013 02:24 9,2 C 7,8 C 83 % 1010,6 hPa 0,0 l/m 0 min 0 min 0,0 UV-I 0 W/m 2,6 km/h (1 Bft)
29.09.2013 02:26 9,2 C 7,8 C 83 % 1010,5 hPa 0,0 l/m 0 min 0 min 0,0 UV-I 0 W/m 5,1 km/h (1 Bft)
29.09.2013 02:28 9,2 C 7,8 C 83 % 1010,5 hPa 0,0 l/m 0 min 0 min 0,0 UV-I 0 W/m 0,0 km/h (0 Bft)
29.09.2013 02:30 9,2 C 7,8 C 83 % 1010,6 hPa 0,0 l/m 0 min 0 min 0,0 UV-I 0 W/m 2,6 km/h (1 Bft)
29.09.2013 02:32 9,2 C 7,8 C 83 % 1010,5 hPa 0,0 l/m 0 min 0 min 0,0 UV-I 0 W/m 0,0 km/h (0 Bft)
29.09.2013 02:34 9,2 C 7,8 C 83 % 1010,5 hPa 0,0 l/m 0 min 0 min 0,0 UV-I 0 W/m 0,0 km/h (0 Bft)
29.09.2013 02:36 9,2 C 7,8 C 83 % 1010,4 hPa 0,0 l/m 0 min 0 min 0,0 UV-I 0 W/m 0,0 km/h (0 Bft)
29.09.2013 02:38 9,1 C 7,8 C 83 % 1010,5 hPa 0,0 l/m 0 min 0 min 0,0 UV-I 0 W/m 2,6 km/h (1 Bft)
29.09.2013 02:40 9,1 C 7,8 C 83 % 1010,4 hPa 0,0 l/m 0 min 0 min 0,0 UV-I 0 W/m 2,6 km/h (1 Bft)
29.09.2013 02:42 9,1 C 7,8 C 84 % 1010,4 hPa 0,0 l/m 0 min 0 min 0,0 UV-I 0 W/m 0,0 km/h (0 Bft)
29.09.2013 02:44 9,1 C 7,8 C 84 % 1010,4 hPa 0,0 l/m 0 min 0 min 0,0 UV-I 0 W/m 0,0 km/h (0 Bft)
29.09.2013 02:46 9,1 C 7,8 C 84 % 1010,4 hPa 0,0 l/m 0 min 0 min 0,0 UV-I 0 W/m 0,0 km/h (0 Bft)
29.09.2013 02:48 9,0 C 7,8 C 84 % 1010,3 hPa 0,0 l/m 0 min 0 min 0,0 UV-I 0 W/m 2,6 km/h (1 Bft)
29.09.2013 02:50 8,9 C 7,8 C 84 % 1010,3 hPa 0,0 l/m 0 min 0 min 0,0 UV-I 0 W/m 0,0 km/h (0 Bft)
29.09.2013 02:52 8,9 C 7,8 C 84 % 1010,2 hPa 0,0 l/m 0 min 0 min 0,0 UV-I 0 W/m 0,0 km/h (0 Bft)
29.09.2013 02:54 8,9 C 7,8 C 84 % 1010,2 hPa 0,0 l/m 0 min 0 min 0,0 UV-I 0 W/m 0,0 km/h (0 Bft)
29.09.2013 02:56 8,9 C 7,8 C 84 % 1010,2 hPa 0,0 l/m 0 min 0 min 0,0 UV-I 0 W/m 2,6 km/h (1 Bft)
29.09.2013 02:58 8,9 C 7,8 C 84 % 1010,2 hPa 0,0 l/m 0 min 0 min 0,0 UV-I 0 W/m 0,0 km/h (0 Bft)
29.09.2013 03:00 8,9 C 7,8 C 84 % 1010,2 hPa 0,0 l/m 0 min 0 min 0,0 UV-I 0 W/m 2,6 km/h (1 Bft)
29.09.2013 03:02 8,9 C 7,8 C 84 % 1010,2 hPa 0,0 l/m 0 min 0 min 0,0 UV-I 0 W/m 0,0 km/h (0 Bft)
29.09.2013 03:06 8,9 C 7,8 C 84 % 1010,2 hPa 0,0 l/m 0 min 0 min 0,0 UV-I 0 W/m 2,6 km/h (1 Bft)
29.09.2013 03:08 8,9 C 7,8 C 84 % 1010,1 hPa 0,0 l/m 0 min 0 min 0,0 UV-I 0 W/m 0,0 km/h (0 Bft)
29.09.2013 03:10 8,9 C 7,8 C 84 % 1010,1 hPa 0,0 l/m 0 min 0 min 0,0 UV-I 0 W/m 5,1 km/h (1 Bft)
29.09.2013 03:12 8,9 C 7,8 C 84 % 1010,2 hPa 0,0 l/m 0 min 0 min 0,0 UV-I 0 W/m 2,6 km/h (1 Bft)
29.09.2013 03:14 8,8 C 7,2 C 84 % 1010,2 hPa 0,0 l/m 0 min 0 min 0,0 UV-I 0 W/m 0,0 km/h (0 Bft)
29.09.2013 03:16 8,8 C 7,2 C 85 % 1010,2 hPa 0,0 l/m 0 min 0 min 0,0 UV-I 0 W/m 0,0 km/h (0 Bft)
29.09.2013 03:18 8,8 C 7,2 C 85 % 1010,2 hPa 0,0 l/m 0 min 0 min 0,0 UV-I 0 W/m 0,0 km/h (0 Bft)
29.09.2013 03:20 8,8 C 7,2 C 85 % 1010,1 hPa 0,0 l/m 0 min 0 min 0,0 UV-I 0 W/m 2,6 km/h (1 Bft)
29.09.2013 03:22 8,8 C 7,8 C 85 % 1010,1 hPa 0,0 l/m 0 min 0 min 0,0 UV-I 0 W/m 2,6 km/h (1 Bft)
29.09.2013 03:24 8,8 C 7,8 C 85 % 1010,1 hPa 0,0 l/m 0 min 0 min 0,0 UV-I 0 W/m 0,0 km/h (0 Bft)
29.09.2013 03:26 8,8 C 7,2 C 85 % 1010,0 hPa 0,0 l/m 0 min 0 min 0,0 UV-I 0 W/m 0,0 km/h (0 Bft)
29.09.2013 03:28 8,8 C 7,8 C 85 % 1010,0 hPa 0,0 l/m 0 min 0 min 0,0 UV-I 0 W/m 0,0 km/h (0 Bft)
29.09.2013 03:30 8,8 C 7,8 C 85 % 1009,9 hPa 0,0 l/m 0 min 0 min 0,0 UV-I 0 W/m 0,0 km/h (0 Bft)
29.09.2013 03:32 8,8 C 7,2 C 85 % 1009,9 hPa 0,0 l/m 0 min 0 min 0,0 UV-I 0 W/m 0,0 km/h (0 Bft)
29.09.2013 03:34 8,8 C 7,8 C 85 % 1009,9 hPa 0,0 l/m 0 min 0 min 0,0 UV-I 0 W/m 2,6 km/h (1 Bft)
29.09.2013 03:36 8,8 C 7,2 C 85 % 1009,9 hPa 0,0 l/m 0 min 0 min 0,0 UV-I 0 W/m 0,0 km/h (0 Bft)
29.09.2013 03:38 8,8 C 7,2 C 85 % 1009,8 hPa 0,0 l/m 0 min 0 min 0,0 UV-I 0 W/m 7,7 km/h (2 Bft)
29.09.2013 03:40 8,8 C 7,2 C 85 % 1009,8 hPa 0,0 l/m 0 min 0 min 0,0 UV-I 0 W/m 2,6 km/h (1 Bft)
29.09.2013 03:42 8,8 C 7,8 C 85 % 1009,8 hPa 0,0 l/m 0 min 0 min 0,0 UV-I 0 W/m 2,6 km/h (1 Bft)
29.09.2013 03:44 8,8 C 7,2 C 85 % 1009,9 hPa 0,0 l/m 0 min 0 min 0,0 UV-I 0 W/m 0,0 km/h (0 Bft)
29.09.2013 03:46 8,7 C 7,2 C 85 % 1009,8 hPa 0,0 l/m 0 min 0 min 0,0 UV-I 0 W/m 0,0 km/h (0 Bft)
29.09.2013 03:48 8,7 C 7,2 C 85 % 1009,8 hPa 0,0 l/m 0 min 0 min 0,0 UV-I 0 W/m 2,6 km/h (1 Bft)
29.09.2013 03:50 8,7 C 7,2 C 85 % 1009,8 hPa 0,0 l/m 0 min 0 min 0,0 UV-I 0 W/m 0,0 km/h (0 Bft)
29.09.2013 03:52 8,7 C 7,2 C 85 % 1009,8 hPa 0,0 l/m 0 min 0 min 0,0 UV-I 0 W/m 0,0 km/h (0 Bft)
29.09.2013 03:54 8,7 C 7,2 C 85 % 1009,7 hPa 0,0 l/m 0 min 0 min 0,0 UV-I 0 W/m 7,7 km/h (2 Bft)
29.09.2013 03:56 8,7 C 7,2 C 85 % 1009,7 hPa 0,0 l/m 0 min 0 min 0,0 UV-I 0 W/m 0,0 km/h (0 Bft)
29.09.2013 03:58 8,7 C 7,2 C 85 % 1009,8 hPa 0,0 l/m 0 min 0 min 0,0 UV-I 0 W/m 2,6 km/h (1 Bft)
29.09.2013 04:00 8,6 C 7,2 C 86 % 1009,7 hPa 0,0 l/m 0 min 0 min 0,0 UV-I 0 W/m 0,0 km/h (0 Bft)
29.09.2013 04:02 8,6 C 7,2 C 86 % 1009,8 hPa 0,0 l/m 0 min 0 min 0,0 UV-I 0 W/m 0,0 km/h (0 Bft)
29.09.2013 04:06 8,5 C 7,2 C 86 % 1009,7 hPa 0,0 l/m 0 min 0 min 0,0 UV-I 0 W/m 0,0 km/h (0 Bft)
29.09.2013 04:08 8,5 C 7,2 C 86 % 1009,7 hPa 0,0 l/m 0 min 0 min 0,0 UV-I 0 W/m 0,0 km/h (0 Bft)
29.09.2013 04:10 8,5 C 7,2 C 86 % 1009,6 hPa 0,0 l/m 0 min 0 min 0,0 UV-I 0 W/m 2,6 km/h (1 Bft)
29.09.2013 04:12 8,5 C 7,2 C 86 % 1009,6 hPa 0,0 l/m 0 min 0 min 0,0 UV-I 0 W/m 0,0 km/h (0 Bft)
29.09.2013 04:14 8,5 C 7,2 C 86 % 1009,6 hPa 0,0 l/m 0 min 0 min 0,0 UV-I 0 W/m 0,0 km/h (0 Bft)
29.09.2013 04:16 8,5 C 7,2 C 86 % 1009,6 hPa 0,0 l/m 0 min 0 min 0,0 UV-I 0 W/m 0,0 km/h (0 Bft)
29.09.2013 04:18 8,5 C 7,2 C 86 % 1009,6 hPa 0,0 l/m 0 min 0 min 0,0 UV-I 0 W/m 2,6 km/h (1 Bft)
29.09.2013 04:20 8,5 C 7,2 C 86 % 1009,6 hPa 0,0 l/m 0 min 0 min 0,0 UV-I 0 W/m 0,0 km/h (0 Bft)
29.09.2013 04:22 8,5 C 7,2 C 86 % 1009,7 hPa 0,0 l/m 0 min 0 min 0,0 UV-I 0 W/m 0,0 km/h (0 Bft)
29.09.2013 04:24 8,5 C 7,2 C 86 % 1009,7 hPa 0,0 l/m 0 min 0 min 0,0 UV-I 0 W/m 0,0 km/h (0 Bft)
29.09.2013 04:26 8,4 C 7,2 C 86 % 1009,6 hPa 0,0 l/m 0 min 0 min 0,0 UV-I 0 W/m 2,6 km/h (1 Bft)
29.09.2013 04:28 8,4 C 7,2 C 86 % 1009,5 hPa 0,0 l/m 0 min 0 min 0,0 UV-I 0 W/m 0,0 km/h (0 Bft)
29.09.2013 04:30 8,4 C 7,2 C 86 % 1009,6 hPa 0,0 l/m 0 min 0 min 0,0 UV-I 0 W/m 2,6 km/h (1 Bft)
29.09.2013 04:32 8,4 C 7,2 C 86 % 1009,6 hPa 0,0 l/m 0 min 0 min 0,0 UV-I 0 W/m 0,0 km/h (0 Bft)
29.09.2013 04:34 8,4 C 7,2 C 86 % 1009,6 hPa 0,0 l/m 0 min 0 min 0,0 UV-I 0 W/m 0,0 km/h (0 Bft)
29.09.2013 04:36 8,4 C 7,2 C 87 % 1009,6 hPa 0,0 l/m 0 min 0 min 0,0 UV-I 0 W/m 0,0 km/h (0 Bft)
29.09.2013 04:38 8,4 C 7,2 C 87 % 1009,6 hPa 0,0 l/m 0 min 0 min 0,0 UV-I 0 W/m 0,0 km/h (0 Bft)
29.09.2013 04:40 8,3 C 7,2 C 87 % 1009,6 hPa 0,0 l/m 0 min 0 min 0,0 UV-I 0 W/m 0,0 km/h (0 Bft)
29.09.2013 04:42 8,3 C 7,2 C 87 % 1009,5 hPa 0,0 l/m 0 min 0 min 0,0 UV-I 0 W/m 0,0 km/h (0 Bft)
29.09.2013 04:44 8,3 C 7,2 C 87 % 1009,5 hPa 0,0 l/m 0 min 0 min 0,0 UV-I 0 W/m 0,0 km/h (0 Bft)
29.09.2013 04:46 8,3 C 7,2 C 87 % 1009,5 hPa 0,0 l/m 0 min 0 min 0,0 UV-I 0 W/m 0,0 km/h (0 Bft)
29.09.2013 04:48 8,3 C 7,2 C 87 % 1009,6 hPa 0,0 l/m 0 min 0 min 0,0 UV-I 0 W/m 0,0 km/h (0 Bft)
29.09.2013 04:50 8,3 C 7,2 C 87 % 1009,7 hPa 0,0 l/m 0 min 0 min 0,0 UV-I 0 W/m 0,0 km/h (0 Bft)
29.09.2013 04:52 8,3 C 7,2 C 87 % 1009,6 hPa 0,0 l/m 0 min 0 min 0,0 UV-I 0 W/m 0,0 km/h (0 Bft)
29.09.2013 04:54 8,3 C 7,2 C 87 % 1009,6 hPa 0,0 l/m 0 min 0 min 0,0 UV-I 0 W/m 0,0 km/h (0 Bft)
29.09.2013 04:56 8,2 C 7,2 C 87 % 1009,6 hPa 0,0 l/m 0 min 0 min 0,0 UV-I 0 W/m 0,0 km/h (0 Bft)
29.09.2013 04:58 8,3 C 7,2 C 87 % 1009,5 hPa 0,0 l/m 0 min 0 min 0,0 UV-I 0 W/m 2,6 km/h (1 Bft)
29.09.2013 05:00 8,3 C 7,2 C 87 % 1009,5 hPa 0,0 l/m 0 min 0 min 0,0 UV-I 0 W/m 0,0 km/h (0 Bft)
29.09.2013 05:02 8,3 C 7,2 C 87 % 1009,5 hPa 0,0 l/m 0 min 0 min 0,0 UV-I 0 W/m 2,6 km/h (1 Bft)
29.09.2013 05:06 8,3 C 7,2 C 87 % 1009,4 hPa 0,0 l/m 0 min 0 min 0,0 UV-I 0 W/m 0,0 km/h (0 Bft)
29.09.2013 05:08 8,3 C 7,2 C 87 % 1009,4 hPa 0,0 l/m 0 min 0 min 0,0 UV-I 0 W/m 0,0 km/h (0 Bft)
29.09.2013 05:10 8,3 C 6,7 C 87 % 1009,5 hPa 0,0 l/m 0 min 0 min 0,0 UV-I 0 W/m 0,0 km/h (0 Bft)
29.09.2013 05:12 8,2 C 6,7 C 87 % 1009,5 hPa 0,0 l/m 0 min 0 min 0,0 UV-I 0 W/m 0,0 km/h (0 Bft)
29.09.2013 05:14 8,2 C 6,7 C 87 % 1009,5 hPa 0,0 l/m 0 min 0 min 0,0 UV-I 0 W/m 0,0 km/h (0 Bft)
29.09.2013 05:16 8,2 C 6,7 C 87 % 1009,5 hPa 0,0 l/m 0 min 0 min 0,0 UV-I 0 W/m 0,0 km/h (0 Bft)
29.09.2013 05:18 8,1 C 6,7 C 88 % 1009,4 hPa 0,0 l/m 0 min 0 min 0,0 UV-I 0 W/m 0,0 km/h (0 Bft)
29.09.2013 05:20 8,1 C 6,7 C 87 % 1009,4 hPa 0,0 l/m 0 min 0 min 0,0 UV-I 0 W/m 2,6 km/h (1 Bft)
29.09.2013 05:22 8,2 C 6,7 C 88 % 1009,5 hPa 0,0 l/m 0 min 0 min 0,0 UV-I 0 W/m 10,3 km/h (2 Bft)
29.09.2013 05:24 8,2 C 7,2 C 91 % 1009,5 hPa 0,0 l/m 0 min 0 min 0,0 UV-I 0 W/m 2,6 km/h (1 Bft)
29.09.2013 05:26 8,2 C 7,2 C 88 % 1009,5 hPa 0,0 l/m 0 min 0 min 0,0 UV-I 0 W/m 0,0 km/h (0 Bft)
29.09.2013 05:28 8,2 C 6,7 C 88 % 1009,5 hPa 0,0 l/m 0 min 0 min 0,0 UV-I 0 W/m 0,0 km/h (0 Bft)
29.09.2013 05:30 8,2 C 6,7 C 88 % 1009,4 hPa 0,0 l/m 0 min 0 min 0,0 UV-I 0 W/m 0,0 km/h (0 Bft)
29.09.2013 05:32 8,1 C 6,7 C 87 % 1009,4 hPa 0,0 l/m 0 min 0 min 0,0 UV-I 0 W/m 0,0 km/h (0 Bft)
29.09.2013 05:34 8,1 C 6,7 C 87 % 1009,4 hPa 0,0 l/m 0 min 0 min 0,0 UV-I 0 W/m 0,0 km/h (0 Bft)
29.09.2013 05:36 8,1 C 6,7 C 88 % 1009,3 hPa 0,0 l/m 0 min 0 min 0,0 UV-I 0 W/m 2,6 km/h (1 Bft)
29.09.2013 05:38 8,2 C 7,2 C 88 % 1009,3 hPa 0,0 l/m 0 min 0 min 0,0 UV-I 0 W/m 2,6 km/h (1 Bft)
29.09.2013 05:40 8,2 C 7,2 C 88 % 1009,2 hPa 0,0 l/m 0 min 0 min 0,0 UV-I 0 W/m 2,6 km/h (1 Bft)
29.09.2013 05:42 8,2 C 7,2 C 91 % 1009,3 hPa 0,0 l/m 0 min 0 min 0,0 UV-I 0 W/m 0,0 km/h (0 Bft)
29.09.2013 05:44 8,2 C 6,7 C 88 % 1009,3 hPa 0,0 l/m 0 min 0 min 0,0 UV-I 0 W/m 0,0 km/h (0 Bft)
29.09.2013 05:46 8,2 C 6,7 C 88 % 1009,3 hPa 0,0 l/m 0 min 0 min 0,0 UV-I 0 W/m 0,0 km/h (0 Bft)
29.09.2013 05:48 8,2 C 6,7 C 88 % 1009,3 hPa 0,0 l/m 0 min 0 min 0,0 UV-I 0 W/m 2,6 km/h (1 Bft)
29.09.2013 05:50 8,2 C 6,7 C 88 % 1009,1 hPa 0,0 l/m 0 min 0 min 0,0 UV-I 0 W/m 0,0 km/h (0 Bft)
29.09.2013 05:52 8,2 C 6,7 C 88 % 1009,0 hPa 0,0 l/m 0 min 0 min 0,0 UV-I 0 W/m 2,6 km/h (1 Bft)
29.09.2013 05:54 8,1 C 7,2 C 88 % 1009,1 hPa 0,0 l/m 0 min 0 min 0,0 UV-I 0 W/m 2,6 km/h (1 Bft)
29.09.2013 05:56 8,1 C 6,7 C 88 % 1009,0 hPa 0,0 l/m 0 min 0 min 0,0 UV-I 0 W/m 0,0 km/h (0 Bft)
29.09.2013 05:58 8,1 C 6,7 C 88 % 1009,1 hPa 0,0 l/m 0 min 0 min 0,0 UV-I 0 W/m 0,0 km/h (0 Bft)
29.09.2013 06:00 8,1 C 6,7 C 87 % 1009,2 hPa 0,0 l/m 0 min 0 min 0,0 UV-I 0 W/m 0,0 km/h (0 Bft)
29.09.2013 06:02 8,1 C 6,7 C 87 % 1009,1 hPa 0,0 l/m 0 min 0 min 0,0 UV-I 0 W/m 5,1 km/h (1 Bft)
29.09.2013 06:06 8,1 C 6,7 C 87 % 1009,1 hPa 0,0 l/m 0 min 0 min 0,0 UV-I 0 W/m 0,0 km/h (0 Bft)
29.09.2013 06:08 8,1 C 6,7 C 87 % 1009,1 hPa 0,0 l/m 0 min 0 min 0,0 UV-I 0 W/m 2,6 km/h (1 Bft)
29.09.2013 06:10 8,1 C 6,7 C 87 % 1009,1 hPa 0,0 l/m 0 min 0 min 0,0 UV-I 0 W/m 0,0 km/h (0 Bft)
29.09.2013 06:12 8,0 C 6,7 C 88 % 1009,1 hPa 0,0 l/m 0 min 0 min 0,0 UV-I 0 W/m 0,0 km/h (0 Bft)
29.09.2013 06:14 7,9 C 6,7 C 88 % 1009,1 hPa 0,0 l/m 0 min 0 min 0,0 UV-I 0 W/m 0,0 km/h (0 Bft)
29.09.2013 06:16 7,9 C 6,7 C 88 % 1009,1 hPa 0,0 l/m 0 min 0 min 0,0 UV-I 0 W/m 2,6 km/h (1 Bft)
29.09.2013 06:18 7,9 C 6,7 C 88 % 1009,1 hPa 0,0 l/m 0 min 0 min 0,0 UV-I 0 W/m 0,0 km/h (0 Bft)
29.09.2013 06:20 7,9 C 6,7 C 88 % 1009,0 hPa 0,0 l/m 0 min 0 min 0,0 UV-I 0 W/m 0,0 km/h (0 Bft)
29.09.2013 06:22 7,9 C 6,7 C 88 % 1009,1 hPa 0,0 l/m 0 min 0 min 0,0 UV-I 0 W/m 5,1 km/h (1 Bft)
29.09.2013 06:24 7,9 C 6,7 C 88 % 1009,1 hPa 0,0 l/m 0 min 0 min 0,0 UV-I 0 W/m 0,0 km/h (0 Bft)
29.09.2013 06:26 7,9 C 6,7 C 88 % 1009,1 hPa 0,0 l/m 0 min 0 min 0,0 UV-I 0 W/m 0,0 km/h (0 Bft)
29.09.2013 06:28 7,9 C 6,7 C 88 % 1009,1 hPa 0,0 l/m 0 min 0 min 0,0 UV-I 0 W/m 2,6 km/h (1 Bft)
29.09.2013 06:30 7,8 C 6,7 C 88 % 1009,1 hPa 0,0 l/m 0 min 0 min 0,0 UV-I 0 W/m 0,0 km/h (0 Bft)
29.09.2013 06:32 7,8 C 6,7 C 88 % 1009,0 hPa 0,0 l/m 0 min 0 min 0,0 UV-I 0 W/m 0,0 km/h (0 Bft)
29.09.2013 06:34 7,8 C 6,7 C 88 % 1009,0 hPa 0,0 l/m 0 min 0 min 0,0 UV-I 0 W/m 0,0 km/h (0 Bft)
29.09.2013 06:36 7,8 C 6,7 C 88 % 1009,0 hPa 0,0 l/m 0 min 0 min 0,0 UV-I 0 W/m 0,0 km/h (0 Bft)
29.09.2013 06:38 7,8 C 6,7 C 88 % 1009,1 hPa 0,0 l/m 0 min 0 min 0,0 UV-I 0 W/m 0,0 km/h (0 Bft)
29.09.2013 06:40 7,8 C 6,7 C 88 % 1009,1 hPa 0,0 l/m 0 min 0 min 0,0 UV-I 0 W/m 0,0 km/h (0 Bft)
29.09.2013 06:42 7,8 C 6,7 C 88 % 1009,0 hPa 0,0 l/m 0 min 0 min 0,0 UV-I 0 W/m 0,0 km/h (0 Bft)
29.09.2013 06:44 7,7 C 6,7 C 88 % 1009,0 hPa 0,0 l/m 0 min 0 min 0,0 UV-I 0 W/m 0,0 km/h (0 Bft)
29.09.2013 06:46 7,7 C 6,7 C 88 % 1009,0 hPa 0,0 l/m 0 min 0 min 0,0 UV-I 0 W/m 0,0 km/h (0 Bft)
29.09.2013 06:48 7,7 C 6,7 C 88 % 1009,0 hPa 0,0 l/m 0 min 0 min 0,0 UV-I 0 W/m 2,6 km/h (1 Bft)
29.09.2013 06:50 7,7 C 6,7 C 88 % 1009,0 hPa 0,0 l/m 0 min 0 min 0,0 UV-I 0 W/m 2,6 km/h (1 Bft)
29.09.2013 06:52 7,7 C 6,7 C 88 % 1009,0 hPa 0,0 l/m 0 min 0 min 0,0 UV-I 0 W/m 0,0 km/h (0 Bft)
29.09.2013 06:54 7,7 C 6,7 C 89 % 1008,9 hPa 0,0 l/m 0 min 0 min 0,0 UV-I 0 W/m 7,7 km/h (2 Bft)
29.09.2013 06:56 7,7 C 6,7 C 89 % 1009,0 hPa 0,0 l/m 0 min 0 min 0,0 UV-I 0 W/m 0,0 km/h (0 Bft)
29.09.2013 06:58 7,7 C 6,7 C 88 % 1008,9 hPa 0,0 l/m 0 min 0 min 0,0 UV-I 0 W/m 0,0 km/h (0 Bft)
29.09.2013 07:00 7,7 C 6,7 C 88 % 1008,8 hPa 0,0 l/m 0 min 0 min 0,0 UV-I 0 W/m 0,0 km/h (0 Bft)
29.09.2013 07:02 7,7 C 6,1 C 89 % 1008,8 hPa 0,0 l/m 0 min 0 min 0,0 UV-I 0 W/m 0,0 km/h (0 Bft)
29.09.2013 07:06 7,6 C 6,1 C 89 % 1008,8 hPa 0,0 l/m 0 min 0 min 0,0 UV-I 0 W/m 2,6 km/h (1 Bft)
29.09.2013 07:08 7,6 C 6,7 C 89 % 1008,8 hPa 0,0 l/m 0 min 0 min 0,0 UV-I 0 W/m 0,0 km/h (0 Bft)
29.09.2013 07:10 7,6 C 6,7 C 89 % 1008,8 hPa 0,0 l/m 0 min 0 min 0,0 UV-I 0 W/m 0,0 km/h (0 Bft)
29.09.2013 07:12 7,7 C 6,7 C 89 % 1008,8 hPa 0,0 l/m 0 min 0 min 0,0 UV-I 0 W/m 0,0 km/h (0 Bft)
29.09.2013 07:14 7,7 C 6,7 C 89 % 1008,8 hPa 0,0 l/m 0 min 0 min 0,0 UV-I 0 W/m 2,6 km/h (1 Bft)
29.09.2013 07:16 7,7 C 6,7 C 89 % 1008,9 hPa 0,0 l/m 0 min 0 min 0,0 UV-I 0 W/m 0,0 km/h (0 Bft)
29.09.2013 07:18 7,7 C 6,7 C 89 % 1008,9 hPa 0,0 l/m 0 min 0 min 0,0 UV-I 0 W/m 2,6 km/h (1 Bft)
29.09.2013 07:20 7,7 C 6,7 C 89 % 1008,9 hPa 0,0 l/m 0 min 0 min 0,0 UV-I 0 W/m 0,0 km/h (0 Bft)
29.09.2013 07:22 7,7 C 6,7 C 89 % 1008,8 hPa 0,0 l/m 0 min 0 min 0,0 UV-I 0 W/m 2,6 km/h (1 Bft)
29.09.2013 07:24 7,7 C 6,7 C 89 % 1008,9 hPa 0,0 l/m 0 min 0 min 0,0 UV-I 0 W/m 0,0 km/h (0 Bft)
29.09.2013 07:26 7,7 C 6,7 C 89 % 1009,0 hPa 0,0 l/m 0 min 0 min 0,0 UV-I 0 W/m 2,6 km/h (1 Bft)
29.09.2013 07:28 7,7 C 6,7 C 89 % 1008,9 hPa 0,0 l/m 0 min 0 min 0,0 UV-I 0 W/m 0,0 km/h (0 Bft)
29.09.2013 07:30 7,7 C 6,7 C 88 % 1009,0 hPa 0,0 l/m 0 min 0 min 0,0 UV-I 5 W/m 2,6 km/h (1 Bft)
29.09.2013 07:32 7,7 C 6,7 C 88 % 1009,0 hPa 0,0 l/m 0 min 0 min 0,0 UV-I 5 W/m 0,0 km/h (0 Bft)
29.09.2013 07:34 7,7 C 6,7 C 88 % 1009,1 hPa 0,0 l/m 0 min 0 min 0,0 UV-I 5 W/m 0,0 km/h (0 Bft)
29.09.2013 07:36 7,7 C 6,7 C 88 % 1009,0 hPa 0,0 l/m 0 min 0 min 0,0 UV-I 7 W/m 0,0 km/h (0 Bft)
29.09.2013 07:38 7,7 C 6,7 C 88 % 1009,0 hPa 0,0 l/m 0 min 0 min 0,0 UV-I 7 W/m 2,6 km/h (1 Bft)
29.09.2013 07:40 7,7 C 6,7 C 88 % 1009,1 hPa 0,0 l/m 0 min 0 min 0,0 UV-I 9 W/m 2,6 km/h (1 Bft)
29.09.2013 07:42 7,7 C 6,7 C 88 % 1009,1 hPa 0,0 l/m 0 min 0 min 0,0 UV-I 11 W/m 2,6 km/h (1 Bft)
29.09.2013 07:44 7,7 C 6,7 C 88 % 1009,1 hPa 0,0 l/m 0 min 0 min 0,0 UV-I 11 W/m 2,6 km/h (1 Bft)
29.09.2013 07:46 7,7 C 6,7 C 88 % 1009,2 hPa 0,0 l/m 0 min 0 min 0,0 UV-I 11 W/m 10,3 km/h (2 Bft)
29.09.2013 07:48 7,7 C 6,7 C 88 % 1009,3 hPa 0,0 l/m 0 min 0 min 0,0 UV-I 12 W/m 2,6 km/h (1 Bft)
29.09.2013 07:50 7,7 C 6,7 C 88 % 1009,2 hPa 0,0 l/m 0 min 0 min 0,0 UV-I 12 W/m 0,0 km/h (0 Bft)
29.09.2013 07:52 7,7 C 6,7 C 88 % 1009,0 hPa 0,0 l/m 0 min 0 min 0,0 UV-I 12 W/m 0,0 km/h (0 Bft)
29.09.2013 07:54 7,7 C 6,7 C 88 % 1009,1 hPa 0,0 l/m 0 min 0 min 0,0 UV-I 14 W/m 2,6 km/h (1 Bft)
29.09.2013 07:56 7,7 C 6,7 C 88 % 1009,1 hPa 0,0 l/m 0 min 0 min 0,0 UV-I 14 W/m 2,6 km/h (1 Bft)
29.09.2013 07:58 7,7 C 6,7 C 88 % 1009,1 hPa 0,0 l/m 0 min 0 min 0,0 UV-I 16 W/m 0,0 km/h (0 Bft)
29.09.2013 08:00 7,8 C 6,7 C 88 % 1009,1 hPa 0,0 l/m 0 min 0 min 0,0 UV-I 19 W/m 5,1 km/h (1 Bft)
29.09.2013 08:02 7,8 C 6,7 C 88 % 1009,2 hPa 0,0 l/m 0 min 0 min 0,0 UV-I 19 W/m 2,6 km/h (1 Bft)
29.09.2013 08:06 7,8 C 6,7 C 88 % 1009,3 hPa 0,0 l/m 0 min 0 min 0,0 UV-I 19 W/m 7,7 km/h (2 Bft)
29.09.2013 08:08 7,8 C 6,7 C 88 % 1009,2 hPa 0,0 l/m 0 min 0 min 0,0 UV-I 19 W/m 2,6 km/h (1 Bft)
29.09.2013 08:10 7,8 C 6,7 C 88 % 1009,2 hPa 0,0 l/m 0 min 0 min 0,0 UV-I 21 W/m 12,9 km/h (3 Bft)
29.09.2013 08:12 7,8 C 6,7 C 88 % 1009,1 hPa 0,0 l/m 0 min 0 min 0,0 UV-I 23 W/m 0,0 km/h (0 Bft)
29.09.2013 08:14 7,8 C 6,7 C 88 % 1009,1 hPa 0,0 l/m 0 min 0 min 0,0 UV-I 25 W/m 2,6 km/h (1 Bft)
29.09.2013 08:16 7,9 C 6,7 C 88 % 1009,1 hPa 0,0 l/m 0 min 0 min 0,0 UV-I 25 W/m 2,6 km/h (1 Bft)
29.09.2013 08:18 7,9 C 6,7 C 88 % 1009,1 hPa 0,0 l/m 0 min 0 min 0,0 UV-I 26 W/m 2,6 km/h (1 Bft)
29.09.2013 08:20 7,9 C 6,7 C 88 % 1009,3 hPa 0,0 l/m 0 min 0 min 0,0 UV-I 28 W/m 10,3 km/h (2 Bft)
29.09.2013 08:22 7,9 C 6,7 C 88 % 1009,2 hPa 0,0 l/m 0 min 0 min 0,0 UV-I 30 W/m 0,0 km/h (0 Bft)
29.09.2013 08:24 7,9 C 6,7 C 88 % 1009,3 hPa 0,0 l/m 0 min 0 min 0,0 UV-I 56 W/m 2,6 km/h (1 Bft)
29.09.2013 08:26 8,0 C 7,2 C 88 % 1009,2 hPa 0,0 l/m 0 min 0 min 0,0 UV-I 62 W/m 7,7 km/h (2 Bft)
29.09.2013 08:28 8,1 C 7,2 C 88 % 1009,1 hPa 0,0 l/m 0 min 0 min 0,0 UV-I 62 W/m 7,7 km/h (2 Bft)
29.09.2013 08:30 8,1 C 7,2 C 87 % 1009,2 hPa 0,0 l/m 0 min 0 min 0,0 UV-I 74 W/m 2,6 km/h (1 Bft)
29.09.2013 08:32 8,1 C 7,2 C 88 % 1009,2 hPa 0,0 l/m 0 min 0 min 0,0 UV-I 79 W/m 10,3 km/h (2 Bft)
29.09.2013 08:34 8,2 C 7,2 C 87 % 1009,1 hPa 0,0 l/m 0 min 0 min 0,0 UV-I 84 W/m 5,1 km/h (1 Bft)
29.09.2013 08:36 8,2 C 7,2 C 87 % 1009,2 hPa 0,0 l/m 2 min 0 min 0,0 UV-I 90 W/m 0,0 km/h (0 Bft)
29.09.2013 08:38 8,3 C 7,2 C 87 % 1009,3 hPa 0,0 l/m 2 min 0 min 0,0 UV-I 93 W/m 2,6 km/h (1 Bft)
29.09.2013 08:40 8,3 C 7,2 C 87 % 1009,2 hPa 0,0 l/m 2 min 0 min 0,0 UV-I 100 W/m 15,4 km/h (3 Bft)
29.09.2013 08:42 8,4 C 7,2 C 87 % 1009,3 hPa 0,0 l/m 2 min 0 min 0,0 UV-I 100 W/m 18,0 km/h (3 Bft)
29.09.2013 08:44 8,4 C 7,8 C 87 % 1009,1 hPa 0,0 l/m 2 min 0 min 0,0 UV-I 105 W/m 12,9 km/h (3 Bft)
29.09.2013 08:46 8,5 C 7,8 C 86 % 1009,1 hPa 0,0 l/m 2 min 0 min 0,0 UV-I 114 W/m 5,1 km/h (1 Bft)
29.09.2013 08:48 8,6 C 7,8 C 86 % 1009,2 hPa 0,0 l/m 2 min 0 min 0,0 UV-I 120 W/m 0,0 km/h (0 Bft)
29.09.2013 08:50 8,6 C 7,8 C 86 % 1009,2 hPa 0,0 l/m 2 min 0 min 0,0 UV-I 123 W/m 10,3 km/h (2 Bft)
29.09.2013 08:52 8,6 C 7,8 C 86 % 1009,3 hPa 0,0 l/m 2 min 0 min 0,0 UV-I 127 W/m 0,0 km/h (0 Bft)
29.09.2013 08:54 8,7 C 7,8 C 86 % 1009,2 hPa 0,0 l/m 2 min 0 min 0,0 UV-I 134 W/m 7,7 km/h (2 Bft)
29.09.2013 08:56 8,7 C 7,8 C 86 % 1009,3 hPa 0,0 l/m 2 min 0 min 0,0 UV-I 135 W/m 10,3 km/h (2 Bft)
29.09.2013 08:58 8,7 C 7,8 C 86 % 1009,3 hPa 0,0 l/m 2 min 0 min 0,0 UV-I 132 W/m 5,1 km/h (1 Bft)
29.09.2013 09:00 8,8 C 7,8 C 86 % 1009,4 hPa 0,0 l/m 2 min 0 min 0,0 UV-I 141 W/m 5,1 km/h (1 Bft)
29.09.2013 09:02 8,8 C 7,8 C 86 % 1009,4 hPa 0,0 l/m 2 min 0 min 0,0 UV-I 153 W/m 2,6 km/h (1 Bft)
29.09.2013 09:06 8,9 C 7,8 C 85 % 1009,4 hPa 0,0 l/m 2 min 0 min 0,0 UV-I 171 W/m 5,1 km/h (1 Bft)
29.09.2013 09:08 9,0 C 7,8 C 85 % 1009,4 hPa 0,0 l/m 2 min 0 min 0,0 UV-I 178 W/m 0,0 km/h (0 Bft)
29.09.2013 09:10 9,1 C 7,8 C 85 % 1009,4 hPa 0,0 l/m 2 min 0 min 0,0 UV-I 185 W/m 7,7 km/h (2 Bft)
29.09.2013 09:12 9,1 C 8,3 C 85 % 1009,3 hPa 0,0 l/m 2 min 0 min 0,0 UV-I 192 W/m 2,6 km/h (1 Bft)
29.09.2013 09:14 9,2 C 8,3 C 85 % 1009,3 hPa 0,0 l/m 2 min 0 min 0,0 UV-I 197 W/m 0,0 km/h (0 Bft)
29.09.2013 09:16 9,3 C 8,3 C 85 % 1009,4 hPa 0,0 l/m 2 min 0 min 0,0 UV-I 204 W/m 2,6 km/h (1 Bft)
29.09.2013 09:18 9,4 C 8,3 C 85 % 1009,4 hPa 0,0 l/m 2 min 0 min 0,0 UV-I 207 W/m 0,0 km/h (0 Bft)
29.09.2013 09:20 9,5 C 8,3 C 84 % 1009,4 hPa 0,0 l/m 2 min 0 min 0,0 UV-I 211 W/m 7,7 km/h (2 Bft)
29.09.2013 09:22 9,6 C 8,3 C 84 % 1009,4 hPa 0,0 l/m 2 min 0 min 0,0 UV-I 207 W/m 2,6 km/h (1 Bft)
29.09.2013 09:24 9,6 C 8,3 C 83 % 1009,4 hPa 0,0 l/m 2 min 0 min 0,0 UV-I 209 W/m 2,6 km/h (1 Bft)
29.09.2013 09:26 9,7 C 8,9 C 83 % 1009,4 hPa 0,0 l/m 2 min 0 min 0,0 UV-I 223 W/m 2,6 km/h (1 Bft)
29.09.2013 09:28 9,7 C 8,9 C 83 % 1009,4 hPa 0,0 l/m 2 min 0 min 0,0 UV-I 236 W/m 0,0 km/h (0 Bft)
29.09.2013 09:30 9,8 C 8,9 C 83 % 1009,5 hPa 0,0 l/m 2 min 0 min 0,0 UV-I 237 W/m 2,6 km/h (1 Bft)
29.09.2013 09:32 9,9 C 8,9 C 83 % 1009,5 hPa 0,0 l/m 2 min 0 min 0,0 UV-I 236 W/m 0,0 km/h (0 Bft)
29.09.2013 09:34 9,9 C 8,9 C 82 % 1009,5 hPa 0,0 l/m 2 min 0 min 0,0 UV-I 239 W/m 12,9 km/h (3 Bft)
29.09.2013 09:36 10,0 C 8,9 C 82 % 1009,5 hPa 0,0 l/m 2 min 0 min 0,0 UV-I 237 W/m 5,1 km/h (1 Bft)
29.09.2013 09:38 10,1 C 8,9 C 82 % 1009,4 hPa 0,0 l/m 2 min 0 min 0,0 UV-I 241 W/m 5,1 km/h (1 Bft)
29.09.2013 09:40 10,2 C 8,9 C 82 % 1009,4 hPa 0,0 l/m 2 min 0 min 0,0 UV-I 248 W/m 7,7 km/h (2 Bft)
29.09.2013 09:42 10,2 C 8,9 C 81 % 1009,4 hPa 0,0 l/m 2 min 0 min 0,0 UV-I 255 W/m 23,2 km/h (4 Bft)
29.09.2013 09:44 10,3 C 8,9 C 81 % 1009,4 hPa 0,0 l/m 2 min 0 min 0,0 UV-I 262 W/m 12,9 km/h (3 Bft)
29.09.2013 09:46 10,4 C 9,4 C 81 % 1009,4 hPa 0,0 l/m 2 min 0 min 0,0 UV-I 269 W/m 18,0 km/h (3 Bft)
29.09.2013 09:48 10,4 C 9,4 C 81 % 1009,4 hPa 0,0 l/m 2 min 0 min 0,0 UV-I 276 W/m 10,3 km/h (2 Bft)
29.09.2013 09:50 10,6 C 9,4 C 81 % 1009,4 hPa 0,0 l/m 2 min 0 min 0,0 UV-I 274 W/m 0,0 km/h (0 Bft)
29.09.2013 09:52 10,7 C 9,4 C 80 % 1009,5 hPa 0,0 l/m 2 min 0 min 0,0 UV-I 283 W/m 7,7 km/h (2 Bft)
29.09.2013 09:54 10,7 C 9,4 C 80 % 1009,4 hPa 0,0 l/m 2 min 0 min 0,0 UV-I 288 W/m 12,9 km/h (3 Bft)
29.09.2013 09:56 10,8 C 9,4 C 80 % 1009,4 hPa 0,0 l/m 2 min 0 min 0,0 UV-I 295 W/m 20,6 km/h (4 Bft)
29.09.2013 09:58 10,9 C 9,4 C 80 % 1009,4 hPa 0,0 l/m 2 min 0 min 0,0 UV-I 299 W/m 10,3 km/h (2 Bft)
29.09.2013 10:00 11,1 C 10,0 C 79 % 1009,4 hPa 0,0 l/m 2 min 0 min 0,0 UV-I 304 W/m 18,0 km/h (3 Bft)
29.09.2013 10:02 11,2 C 10,0 C 79 % 1009,4 hPa 0,0 l/m 2 min 0 min 0,0 UV-I 308 W/m 5,1 km/h (1 Bft)
29.09.2013 10:06 11,3 C 10,0 C 78 % 1009,3 hPa 0,0 l/m 2 min 0 min 0,0 UV-I 315 W/m 12,9 km/h (3 Bft)
29.09.2013 10:08 11,3 C 10,0 C 78 % 1009,5 hPa 0,0 l/m 2 min 0 min 0,0 UV-I 311 W/m 18,0 km/h (3 Bft)
29.09.2013 10:10 11,4 C 10,0 C 78 % 1009,4 hPa 0,0 l/m 2 min 0 min 0,0 UV-I 316 W/m 12,9 km/h (3 Bft)
29.09.2013 10:12 11,4 C 10,0 C 77 % 1009,4 hPa 0,0 l/m 2 min 0 min 0,0 UV-I 309 W/m 20,6 km/h (4 Bft)
29.09.2013 10:14 11,5 C 10,0 C 77 % 1009,4 hPa 0,0 l/m 2 min 0 min 0,0 UV-I 318 W/m 18,0 km/h (3 Bft)
29.09.2013 10:16 11,5 C 10,0 C 77 % 1009,4 hPa 0,0 l/m 2 min 0 min 0,5 UV-I 320 W/m 20,6 km/h (4 Bft)
29.09.2013 10:18 11,6 C 10,6 C 77 % 1009,4 hPa 0,0 l/m 2 min 0 min 0,5 UV-I 341 W/m 12,9 km/h (3 Bft)
29.09.2013 10:20 11,8 C 10,6 C 77 % 1009,4 hPa 0,0 l/m 2 min 0 min 0,5 UV-I 343 W/m 7,7 km/h (2 Bft)
29.09.2013 10:22 11,9 C 10,6 C 78 % 1009,4 hPa 0,0 l/m 2 min 0 min 0,5 UV-I 353 W/m 10,3 km/h (2 Bft)
29.09.2013 10:24 12,0 C 10,6 C 76 % 1009,4 hPa 0,0 l/m 2 min 0 min 0,6 UV-I 360 W/m 18,0 km/h (3 Bft)
29.09.2013 10:26 12,1 C 10,6 C 76 % 1009,4 hPa 0,0 l/m 2 min 0 min 0,6 UV-I 362 W/m 7,7 km/h (2 Bft)
29.09.2013 10:28 12,1 C 11,1 C 76 % 1009,4 hPa 0,0 l/m 2 min 0 min 0,6 UV-I 364 W/m 18,0 km/h (3 Bft)
29.09.2013 10:30 12,2 C 11,1 C 76 % 1009,4 hPa 0,0 l/m 2 min 0 min 0,6 UV-I 366 W/m 15,4 km/h (3 Bft)
29.09.2013 10:32 12,2 C 11,1 C 76 % 1009,4 hPa 0,0 l/m 2 min 0 min 0,6 UV-I 343 W/m 7,7 km/h (2 Bft)
29.09.2013 10:34 12,2 C 11,1 C 76 % 1009,4 hPa 0,0 l/m 2 min 0 min 0,6 UV-I 336 W/m 5,1 km/h (1 Bft)
29.09.2013 10:36 12,3 C 11,1 C 76 % 1009,4 hPa 0,0 l/m 2 min 0 min 0,6 UV-I 338 W/m 0,0 km/h (0 Bft)
29.09.2013 10:38 12,5 C 11,1 C 76 % 1009,4 hPa 0,0 l/m 2 min 0 min 0,7 UV-I 345 W/m 0,0 km/h (0 Bft)
29.09.2013 10:40 12,6 C 11,7 C 75 % 1009,4 hPa 0,0 l/m 2 min 0 min 0,7 UV-I 362 W/m 18,0 km/h (3 Bft)
29.09.2013 10:42 12,6 C 11,7 C 75 % 1009,4 hPa 0,0 l/m 2 min 0 min 0,7 UV-I 359 W/m 12,9 km/h (3 Bft)
29.09.2013 10:44 12,6 C 11,7 C 74 % 1009,4 hPa 0,0 l/m 2 min 0 min 0,8 UV-I 374 W/m 18,0 km/h (3 Bft)
29.09.2013 10:46 12,7 C 11,7 C 75 % 1009,4 hPa 0,0 l/m 2 min 0 min 0,8 UV-I 374 W/m 12,9 km/h (3 Bft)
29.09.2013 10:48 12,8 C 11,7 C 75 % 1009,4 hPa 0,0 l/m 2 min 0 min 0,8 UV-I 369 W/m 15,4 km/h (3 Bft)
29.09.2013 10:50 12,9 C 11,7 C 75 % 1009,4 hPa 0,0 l/m 2 min 0 min 0,8 UV-I 390 W/m 12,9 km/h (3 Bft)
29.09.2013 10:52 12,9 C 11,7 C 74 % 1009,4 hPa 0,0 l/m 2 min 0 min 0,8 UV-I 357 W/m 2,6 km/h (1 Bft)
29.09.2013 10:54 13,1 C 11,7 C 74 % 1009,4 hPa 0,0 l/m 2 min 0 min 0,9 UV-I 364 W/m 2,6 km/h (1 Bft)
29.09.2013 10:56 13,1 C 12,2 C 74 % 1009,3 hPa 0,0 l/m 2 min 0 min 0,9 UV-I 383 W/m 0,0 km/h (0 Bft)
29.09.2013 10:58 13,2 C 12,2 C 74 % 1009,4 hPa 0,0 l/m 2 min 0 min 0,9 UV-I 374 W/m 12,9 km/h (3 Bft)
29.09.2013 11:00 13,2 C 12,2 C 74 % 1009,3 hPa 0,0 l/m 2 min 0 min 1,0 UV-I 403 W/m 2,6 km/h (1 Bft)
29.09.2013 11:02 13,3 C 12,2 C 73 % 1009,3 hPa 0,0 l/m 2 min 0 min 1,0 UV-I 417 W/m 10,3 km/h (2 Bft)
29.09.2013 11:06 13,5 C 12,2 C 73 % 1009,3 hPa 0,0 l/m 2 min 0 min 1,0 UV-I 411 W/m 18,0 km/h (3 Bft)
29.09.2013 11:08 13,7 C 12,8 C 74 % 1009,3 hPa 0,0 l/m 2 min 0 min 1,1 UV-I 404 W/m 0,0 km/h (0 Bft)
29.09.2013 11:10 13,7 C 12,8 C 73 % 1009,3 hPa 0,0 l/m 2 min 0 min 1,1 UV-I 408 W/m 0,0 km/h (0 Bft)
29.09.2013 11:12 13,7 C 12,8 C 73 % 1009,3 hPa 0,0 l/m 2 min 0 min 1,1 UV-I 420 W/m 15,4 km/h (3 Bft)
29.09.2013 11:14 13,8 C 12,8 C 73 % 1009,2 hPa 0,0 l/m 2 min 0 min 1,1 UV-I 418 W/m 0,0 km/h (0 Bft)
29.09.2013 11:16 13,9 C 12,8 C 73 % 1009,1 hPa 0,0 l/m 2 min 0 min 1,2 UV-I 425 W/m 12,9 km/h (3 Bft)
29.09.2013 11:18 14,1 C 12,8 C 72 % 1009,1 hPa 0,0 l/m 2 min 0 min 1,2 UV-I 441 W/m 12,9 km/h (3 Bft)
29.09.2013 11:20 14,2 C 12,8 C 72 % 1009,1 hPa 0,0 l/m 2 min 0 min 1,2 UV-I 439 W/m 7,7 km/h (2 Bft)
29.09.2013 11:22 14,2 C 12,8 C 72 % 1009,2 hPa 0,0 l/m 2 min 0 min 1,3 UV-I 441 W/m 7,7 km/h (2 Bft)
29.09.2013 11:24 14,3 C 13,3 C 72 % 1009,3 hPa 0,0 l/m 2 min 0 min 1,3 UV-I 448 W/m 12,9 km/h (3 Bft)
29.09.2013 11:26 14,3 C 13,3 C 72 % 1009,3 hPa 0,0 l/m 2 min 0 min 1,3 UV-I 455 W/m 10,3 km/h (2 Bft)
29.09.2013 11:28 14,4 C 13,3 C 71 % 1009,3 hPa 0,0 l/m 2 min 0 min 1,3 UV-I 455 W/m 7,7 km/h (2 Bft)
29.09.2013 11:30 14,5 C 13,3 C 71 % 1009,2 hPa 0,0 l/m 2 min 0 min 1,3 UV-I 457 W/m 2,6 km/h (1 Bft)
29.09.2013 11:32 14,6 C 13,3 C 70 % 1009,3 hPa 0,0 l/m 2 min 0 min 1,4 UV-I 457 W/m 15,4 km/h (3 Bft)
29.09.2013 11:34 14,6 C 13,3 C 70 % 1009,1 hPa 0,0 l/m 2 min 0 min 1,4 UV-I 459 W/m 15,4 km/h (3 Bft)
29.09.2013 11:36 14,6 C 13,3 C 70 % 1009,2 hPa 0,0 l/m 2 min 0 min 1,4 UV-I 466 W/m 10,3 km/h (2 Bft)
29.09.2013 11:38 14,8 C 13,9 C 71 % 1009,2 hPa 0,0 l/m 2 min 0 min 1,4 UV-I 468 W/m 7,7 km/h (2 Bft)
29.09.2013 11:40 14,9 C 13,9 C 71 % 1009,1 hPa 0,0 l/m 2 min 0 min 1,4 UV-I 469 W/m 2,6 km/h (1 Bft)
29.09.2013 11:42 15,1 C 13,9 C 70 % 1009,3 hPa 0,0 l/m 2 min 0 min 1,5 UV-I 469 W/m 7,7 km/h (2 Bft)
29.09.2013 11:44 15,2 C 13,9 C 70 % 1009,2 hPa 0,0 l/m 2 min 0 min 1,5 UV-I 475 W/m 0,0 km/h (0 Bft)
29.09.2013 11:46 15,4 C 13,9 C 69 % 1009,3 hPa 0,0 l/m 2 min 0 min 1,5 UV-I 480 W/m 7,7 km/h (2 Bft)
29.09.2013 11:48 15,5 C 14,4 C 70 % 1009,2 hPa 0,0 l/m 2 min 0 min 1,6 UV-I 485 W/m 10,3 km/h (2 Bft)
29.09.2013 11:50 15,5 C 13,9 C 69 % 1009,1 hPa 0,0 l/m 2 min 0 min 1,6 UV-I 487 W/m 7,7 km/h (2 Bft)
29.09.2013 11:52 15,6 C 14,4 C 70 % 1009,1 hPa 0,0 l/m 2 min 0 min 1,6 UV-I 489 W/m 0,0 km/h (0 Bft)
29.09.2013 11:54 15,7 C 14,4 C 70 % 1009,0 hPa 0,0 l/m 2 min 0 min 1,6 UV-I 492 W/m 0,0 km/h (0 Bft)
29.09.2013 11:56 15,7 C 14,4 C 70 % 1009,0 hPa 0,0 l/m 2 min 0 min 1,7 UV-I 496 W/m 2,6 km/h (1 Bft)
29.09.2013 11:58 15,9 C 14,4 C 68 % 1009,1 hPa 0,0 l/m 2 min 0 min 1,7 UV-I 496 W/m 0,0 km/h (0 Bft)
29.09.2013 12:00 16,0 C 15,0 C 69 % 1009,1 hPa 0,0 l/m 2 min 0 min 1,7 UV-I 497 W/m 2,6 km/h (1 Bft)
29.09.2013 12:02 16,1 C 15,0 C 68 % 1009,0 hPa 0,0 l/m 2 min 0 min 1,7 UV-I 499 W/m 0,0 km/h (0 Bft)
29.09.2013 12:06 16,2 C 15,0 C 67 % 1009,1 hPa 0,0 l/m 2 min 0 min 1,8 UV-I 504 W/m 12,9 km/h (3 Bft)
29.09.2013 12:08 16,3 C 15,0 C 67 % 1009,0 hPa 0,0 l/m 2 min 0 min 1,8 UV-I 508 W/m 7,7 km/h (2 Bft)
29.09.2013 12:10 16,3 C 15,0 C 66 % 1009,0 hPa 0,0 l/m 2 min 0 min 1,8 UV-I 512 W/m 18,0 km/h (3 Bft)
29.09.2013 12:12 16,4 C 15,0 C 66 % 1009,0 hPa 0,0 l/m 2 min 0 min 1,8 UV-I 513 W/m 10,3 km/h (2 Bft)
29.09.2013 12:14 16,5 C 15,0 C 66 % 1009,0 hPa 0,0 l/m 2 min 0 min 1,8 UV-I 515 W/m 10,3 km/h (2 Bft)
29.09.2013 12:16 16,7 C 15,0 C 67 % 1009,0 hPa 0,0 l/m 2 min 0 min 1,8 UV-I 517 W/m 0,0 km/h (0 Bft)
29.09.2013 12:18 16,7 C 15,0 C 66 % 1009,0 hPa 0,0 l/m 2 min 0 min 1,9 UV-I 517 W/m 7,7 km/h (2 Bft)
29.09.2013 12:20 16,8 C 15,6 C 67 % 1009,0 hPa 0,0 l/m 2 min 0 min 1,9 UV-I 520 W/m 0,0 km/h (0 Bft)
29.09.2013 12:22 16,8 C 15,6 C 67 % 1009,1 hPa 0,0 l/m 2 min 0 min 1,9 UV-I 522 W/m 7,7 km/h (2 Bft)
29.09.2013 12:24 16,8 C 15,6 C 66 % 1009,0 hPa 0,0 l/m 2 min 0 min 1,9 UV-I 524 W/m 10,3 km/h (2 Bft)
29.09.2013 12:26 16,7 C 15,6 C 66 % 1009,0 hPa 0,0 l/m 2 min 0 min 1,9 UV-I 524 W/m 2,6 km/h (1 Bft)
29.09.2013 12:28 16,6 C 15,6 C 66 % 1008,9 hPa 0,0 l/m 2 min 0 min 1,9 UV-I 524 W/m 5,1 km/h (1 Bft)
29.09.2013 12:30 16,6 C 15,0 C 67 % 1008,9 hPa 0,0 l/m 2 min 0 min 1,9 UV-I 526 W/m 5,1 km/h (1 Bft)
29.09.2013 12:32 16,6 C 15,6 C 67 % 1008,9 hPa 0,0 l/m 2 min 0 min 1,8 UV-I 527 W/m 0,0 km/h (0 Bft)
29.09.2013 12:34 16,7 C 15,6 C 67 % 1008,9 hPa 0,0 l/m 2 min 0 min 1,7 UV-I 526 W/m 2,6 km/h (1 Bft)
29.09.2013 12:36 16,7 C 15,6 C 68 % 1008,9 hPa 0,0 l/m 2 min 0 min 1,5 UV-I 529 W/m 5,1 km/h (1 Bft)
29.09.2013 12:38 16,8 C 15,6 C 66 % 1008,9 hPa 0,0 l/m 2 min 0 min 1,4 UV-I 527 W/m 15,4 km/h (3 Bft)
29.09.2013 12:40 16,7 C 15,6 C 66 % 1008,9 hPa 0,0 l/m 2 min 0 min 1,3 UV-I 531 W/m 12,9 km/h (3 Bft)
29.09.2013 12:42 16,6 C 15,6 C 66 % 1008,9 hPa 0,0 l/m 2 min 0 min 1,2 UV-I 533 W/m 0,0 km/h (0 Bft)
29.09.2013 12:44 16,8 C 15,6 C 66 % 1008,9 hPa 0,0 l/m 2 min 0 min 1,1 UV-I 533 W/m 10,3 km/h (2 Bft)
29.09.2013 12:46 17,0 C 15,6 C 66 % 1008,9 hPa 0,0 l/m 2 min 0 min 1,1 UV-I 534 W/m 10,3 km/h (2 Bft)
29.09.2013 12:48 17,1 C 15,6 C 66 % 1008,8 hPa 0,0 l/m 2 min 0 min 1,1 UV-I 534 W/m 5,1 km/h (1 Bft)
29.09.2013 12:50 17,1 C 15,6 C 66 % 1008,8 hPa 0,0 l/m 2 min 0 min 1,1 UV-I 538 W/m 12,9 km/h (3 Bft)
29.09.2013 12:52 17,2 C 15,6 C 66 % 1008,8 hPa 0,0 l/m 2 min 0 min 1,1 UV-I 540 W/m 7,7 km/h (2 Bft)
29.09.2013 12:54 17,3 C 16,1 C 65 % 1008,7 hPa 0,0 l/m 2 min 0 min 1,1 UV-I 541 W/m 15,4 km/h (3 Bft)
29.09.2013 12:56 17,3 C 16,1 C 65 % 1008,8 hPa 0,0 l/m 2 min 0 min 1,1 UV-I 540 W/m 7,7 km/h (2 Bft)
29.09.2013 12:58 17,3 C 16,1 C 65 % 1008,8 hPa 0,0 l/m 2 min 0 min 1,1 UV-I 543 W/m 5,1 km/h (1 Bft)
29.09.2013 13:00 17,5 C 16,1 C 65 % 1008,8 hPa 0,0 l/m 2 min 0 min 1,1 UV-I 543 W/m 7,7 km/h (2 Bft)
29.09.2013 13:02 17,7 C 16,1 C 64 % 1008,7 hPa 0,0 l/m 2 min 0 min 1,1 UV-I 545 W/m 10,3 km/h (2 Bft)
29.09.2013 13:06 17,9 C 16,1 C 64 % 1008,7 hPa 0,0 l/m 2 min 0 min 1,1 UV-I 545 W/m 12,9 km/h (3 Bft)
29.09.2013 13:08 17,9 C 16,1 C 62 % 1008,8 hPa 0,0 l/m 2 min 0 min 1,1 UV-I 545 W/m 10,3 km/h (2 Bft)
29.09.2013 13:10 17,9 C 16,1 C 64 % 1008,8 hPa 0,0 l/m 2 min 0 min 1,1 UV-I 547 W/m 12,9 km/h (3 Bft)
29.09.2013 13:12 17,9 C 16,1 C 63 % 1008,7 hPa 0,0 l/m 2 min 0 min 1,1 UV-I 547 W/m 12,9 km/h (3 Bft)
29.09.2013 13:14 17,9 C 16,1 C 63 % 1008,7 hPa 0,0 l/m 2 min 0 min 1,1 UV-I 545 W/m 12,9 km/h (3 Bft)
29.09.2013 13:16 18,1 C 16,7 C 63 % 1008,7 hPa 0,0 l/m 2 min 0 min 1,1 UV-I 545 W/m 7,7 km/h (2 Bft)
29.09.2013 13:18 18,1 C 16,7 C 62 % 1008,8 hPa 0,0 l/m 2 min 0 min 1,2 UV-I 545 W/m 15,4 km/h (3 Bft)
29.09.2013 13:20 18,0 C 16,7 C 62 % 1008,7 hPa 0,0 l/m 2 min 0 min 1,2 UV-I 545 W/m 2,6 km/h (1 Bft)
29.09.2013 13:22 18,1 C 16,7 C 63 % 1008,8 hPa 0,0 l/m 2 min 0 min 1,2 UV-I 548 W/m 15,4 km/h (3 Bft)
29.09.2013 13:24 18,0 C 16,7 C 62 % 1008,7 hPa 0,0 l/m 2 min 0 min 1,4 UV-I 550 W/m 10,3 km/h (2 Bft)
29.09.2013 13:26 17,9 C 16,7 C 63 % 1008,7 hPa 0,0 l/m 2 min 0 min 1,5 UV-I 552 W/m 10,3 km/h (2 Bft)
29.09.2013 13:28 18,1 C 16,7 C 63 % 1008,7 hPa 0,0 l/m 2 min 0 min 1,5 UV-I 536 W/m 7,7 km/h (2 Bft)
29.09.2013 13:30 18,2 C 16,7 C 64 % 1008,7 hPa 0,0 l/m 2 min 0 min 1,8 UV-I 548 W/m 15,4 km/h (3 Bft)
29.09.2013 13:32 18,1 C 16,7 C 62 % 1008,6 hPa 0,0 l/m 2 min 0 min 2,0 UV-I 545 W/m 12,9 km/h (3 Bft)
29.09.2013 13:34 18,0 C 16,7 C 63 % 1008,6 hPa 0,0 l/m 2 min 0 min 2,1 UV-I 547 W/m 7,7 km/h (2 Bft)
29.09.2013 13:36 18,1 C 16,7 C 64 % 1008,6 hPa 0,0 l/m 2 min 0 min 2,1 UV-I 548 W/m 7,7 km/h (2 Bft)
29.09.2013 13:38 18,1 C 16,7 C 62 % 1008,6 hPa 0,0 l/m 2 min 0 min 2,1 UV-I 547 W/m 12,9 km/h (3 Bft)
29.09.2013 13:40 18,1 C 16,7 C 63 % 1008,6 hPa 0,0 l/m 2 min 0 min 2,1 UV-I 548 W/m 7,7 km/h (2 Bft)
29.09.2013 13:42 18,3 C 16,7 C 63 % 1008,6 hPa 0,0 l/m 2 min 0 min 2,1 UV-I 545 W/m 7,7 km/h (2 Bft)
29.09.2013 13:44 18,3 C 16,7 C 64 % 1008,6 hPa 0,0 l/m 2 min 0 min 2,1 UV-I 547 W/m 0,0 km/h (0 Bft)
29.09.2013 13:46 18,6 C 16,7 C 64 % 1008,5 hPa 0,0 l/m 2 min 0 min 2,1 UV-I 545 W/m 5,1 km/h (1 Bft)
29.09.2013 13:48 18,7 C 17,2 C 61 % 1008,5 hPa 0,0 l/m 2 min 0 min 2,1 UV-I 545 W/m 18,0 km/h (3 Bft)
29.09.2013 13:50 18,7 C 17,2 C 61 % 1008,5 hPa 0,0 l/m 2 min 0 min 2,1 UV-I 543 W/m 5,1 km/h (1 Bft)
29.09.2013 13:52 18,8 C 17,2 C 61 % 1008,5 hPa 0,0 l/m 2 min 0 min 2,1 UV-I 541 W/m 15,4 km/h (3 Bft)
29.09.2013 13:54 18,9 C 17,2 C 62 % 1008,5 hPa 0,0 l/m 2 min 0 min 2,1 UV-I 543 W/m 12,9 km/h (3 Bft)
29.09.2013 13:56 18,8 C 17,2 C 61 % 1008,5 hPa 0,0 l/m 2 min 0 min 2,1 UV-I 545 W/m 7,7 km/h (2 Bft)
29.09.2013 13:58 18,9 C 17,2 C 61 % 1008,4 hPa 0,0 l/m 2 min 0 min 2,1 UV-I 540 W/m 7,7 km/h (2 Bft)
29.09.2013 14:00 19,0 C 17,2 C 60 % 1008,5 hPa 0,0 l/m 2 min 0 min 2,1 UV-I 540 W/m 15,4 km/h (3 Bft)
29.09.2013 14:02 19,1 C 17,2 C 60 % 1008,5 hPa 0,0 l/m 2 min 0 min 2,1 UV-I 538 W/m 10,3 km/h (2 Bft)
29.09.2013 14:06 19,3 C 17,2 C 56 % 1008,4 hPa 0,0 l/m 2 min 0 min 2,1 UV-I 536 W/m 12,9 km/h (3 Bft)
29.09.2013 14:08 19,4 C 17,2 C 58 % 1008,4 hPa 0,0 l/m 2 min 0 min 2,1 UV-I 536 W/m 15,4 km/h (3 Bft)
29.09.2013 14:10 19,4 C 17,2 C 59 % 1008,4 hPa 0,0 l/m 2 min 0 min 2,1 UV-I 536 W/m 23,2 km/h (4 Bft)
29.09.2013 14:12 19,3 C 17,2 C 59 % 1008,4 hPa 0,0 l/m 2 min 0 min 2,1 UV-I 536 W/m 12,9 km/h (3 Bft)
29.09.2013 14:14 19,2 C 17,2 C 59 % 1008,5 hPa 0,0 l/m 2 min 0 min 2,0 UV-I 534 W/m 12,9 km/h (3 Bft)
29.09.2013 14:16 19,2 C 17,2 C 59 % 1008,5 hPa 0,0 l/m 2 min 0 min 2,0 UV-I 534 W/m 10,3 km/h (2 Bft)
29.09.2013 14:18 19,3 C 17,2 C 59 % 1008,4 hPa 0,0 l/m 2 min 0 min 2,0 UV-I 533 W/m 10,3 km/h (2 Bft)
29.09.2013 14:20 19,4 C 17,2 C 56 % 1008,4 hPa 0,0 l/m 2 min 0 min 2,0 UV-I 531 W/m 10,3 km/h (2 Bft)
29.09.2013 14:22 19,7 C 17,8 C 53 % 1008,5 hPa 0,0 l/m 2 min 0 min 2,0 UV-I 531 W/m 20,6 km/h (4 Bft)
29.09.2013 14:24 19,8 C 17,8 C 53 % 1008,4 hPa 0,0 l/m 2 min 0 min 2,0 UV-I 529 W/m 2,6 km/h (1 Bft)
29.09.2013 14:26 19,8 C 17,8 C 50 % 1008,4 hPa 0,0 l/m 2 min 0 min 2,0 UV-I 527 W/m 12,9 km/h (3 Bft)
29.09.2013 14:28 19,9 C 17,8 C 50 % 1008,3 hPa 0,0 l/m 2 min 0 min 2,0 UV-I 526 W/m 15,4 km/h (3 Bft)
29.09.2013 14:30 20,0 C 17,8 C 50 % 1008,4 hPa 0,0 l/m 2 min 0 min 2,0 UV-I 524 W/m 18,0 km/h (3 Bft)
29.09.2013 14:32 20,0 C 17,8 C 50 % 1008,3 hPa 0,0 l/m 2 min 0 min 2,0 UV-I 522 W/m 10,3 km/h (2 Bft)
29.09.2013 14:34 20,1 C 17,8 C 51 % 1008,3 hPa 0,0 l/m 2 min 0 min 1,9 UV-I 520 W/m 10,3 km/h (2 Bft)
29.09.2013 14:36 20,1 C 18,3 C 50 % 1008,3 hPa 0,0 l/m 2 min 0 min 1,9 UV-I 519 W/m 18,0 km/h (3 Bft)
29.09.2013 14:38 20,0 C 17,8 C 48 % 1008,3 hPa 0,0 l/m 2 min 0 min 1,9 UV-I 517 W/m 18,0 km/h (3 Bft)
29.09.2013 14:40 19,9 C 17,8 C 49 % 1008,3 hPa 0,0 l/m 2 min 0 min 1,9 UV-I 515 W/m 20,6 km/h (4 Bft)
29.09.2013 14:42 19,8 C 17,8 C 50 % 1008,3 hPa 0,0 l/m 2 min 0 min 1,9 UV-I 515 W/m 12,9 km/h (3 Bft)
29.09.2013 14:44 19,8 C 17,8 C 50 % 1008,3 hPa 0,0 l/m 2 min 0 min 1,9 UV-I 513 W/m 23,2 km/h (4 Bft)
29.09.2013 14:46 19,9 C 17,8 C 50 % 1008,2 hPa 0,0 l/m 2 min 0 min 1,8 UV-I 512 W/m 18,0 km/h (3 Bft)
29.09.2013 14:48 20,0 C 17,8 C 49 % 1008,2 hPa 0,0 l/m 2 min 0 min 1,8 UV-I 510 W/m 20,6 km/h (4 Bft)
29.09.2013 14:50 19,9 C 17,8 C 50 % 1008,2 hPa 0,0 l/m 2 min 0 min 1,8 UV-I 506 W/m 15,4 km/h (3 Bft)
29.09.2013 14:52 20,0 C 17,8 C 52 % 1008,3 hPa 0,0 l/m 2 min 0 min 1,8 UV-I 503 W/m 25,7 km/h (4 Bft)
29.09.2013 14:54 20,1 C 17,8 C 50 % 1008,2 hPa 0,0 l/m 2 min 0 min 1,8 UV-I 501 W/m 10,3 km/h (2 Bft)
29.09.2013 14:56 20,2 C 18,3 C 49 % 1008,2 hPa 0,0 l/m 2 min 0 min 1,7 UV-I 497 W/m 15,4 km/h (3 Bft)
29.09.2013 14:58 20,2 C 17,8 C 49 % 1008,1 hPa 0,0 l/m 2 min 0 min 1,7 UV-I 497 W/m 18,0 km/h (3 Bft)
29.09.2013 15:00 20,2 C 18,3 C 51 % 1008,2 hPa 0,0 l/m 2 min 0 min 1,7 UV-I 496 W/m 15,4 km/h (3 Bft)
29.09.2013 15:02 20,2 C 18,3 C 51 % 1008,1 hPa 0,0 l/m 2 min 0 min 1,7 UV-I 492 W/m 12,9 km/h (3 Bft)
29.09.2013 15:06 20,2 C 18,3 C 49 % 1008,0 hPa 0,0 l/m 2 min 0 min 1,6 UV-I 489 W/m 12,9 km/h (3 Bft)
29.09.2013 15:08 20,2 C 18,3 C 51 % 1008,0 hPa 0,0 l/m 2 min 0 min 1,6 UV-I 487 W/m 18,0 km/h (3 Bft)
29.09.2013 15:10 20,2 C 18,3 C 50 % 1008,1 hPa 0,0 l/m 2 min 0 min 1,6 UV-I 485 W/m 10,3 km/h (2 Bft)
29.09.2013 15:12 20,4 C 18,3 C 50 % 1008,0 hPa 0,0 l/m 2 min 0 min 1,6 UV-I 480 W/m 7,7 km/h (2 Bft)
29.09.2013 15:14 20,4 C 18,3 C 51 % 1007,9 hPa 0,0 l/m 2 min 0 min 1,5 UV-I 476 W/m 7,7 km/h (2 Bft)
29.09.2013 15:16 20,4 C 18,3 C 49 % 1008,0 hPa 0,0 l/m 2 min 0 min 1,5 UV-I 475 W/m 18,0 km/h (3 Bft)
29.09.2013 15:18 20,5 C 18,3 C 49 % 1008,0 hPa 0,0 l/m 2 min 0 min 1,5 UV-I 471 W/m 18,0 km/h (3 Bft)
29.09.2013 15:20 20,5 C 18,3 C 48 % 1008,0 hPa 0,0 l/m 2 min 0 min 1,5 UV-I 468 W/m 20,6 km/h (4 Bft)
29.09.2013 15:22 20,4 C 18,3 C 48 % 1008,0 hPa 0,0 l/m 2 min 0 min 1,5 UV-I 464 W/m 18,0 km/h (3 Bft)
29.09.2013 15:24 20,4 C 18,3 C 49 % 1008,0 hPa 0,0 l/m 2 min 0 min 1,4 UV-I 461 W/m 18,0 km/h (3 Bft)
29.09.2013 15:26 20,3 C 18,3 C 49 % 1008,1 hPa 0,0 l/m 2 min 0 min 1,4 UV-I 457 W/m 15,4 km/h (3 Bft)
29.09.2013 15:28 20,4 C 18,3 C 49 % 1008,0 hPa 0,0 l/m 2 min 0 min 1,4 UV-I 455 W/m 12,9 km/h (3 Bft)
29.09.2013 15:30 20,4 C 18,3 C 49 % 1008,0 hPa 0,0 l/m 2 min 0 min 1,4 UV-I 452 W/m 23,2 km/h (4 Bft)
29.09.2013 15:32 20,4 C 18,3 C 49 % 1008,0 hPa 0,0 l/m 2 min 0 min 1,3 UV-I 450 W/m 10,3 km/h (2 Bft)
29.09.2013 15:34 20,4 C 18,3 C 48 % 1008,0 hPa 0,0 l/m 2 min 0 min 1,3 UV-I 446 W/m 15,4 km/h (3 Bft)
29.09.2013 15:36 20,5 C 18,3 C 47 % 1008,0 hPa 0,0 l/m 2 min 0 min 1,3 UV-I 443 W/m 12,9 km/h (3 Bft)
29.09.2013 15:38 20,5 C 18,3 C 47 % 1008,0 hPa 0,0 l/m 2 min 0 min 1,3 UV-I 439 W/m 7,7 km/h (2 Bft)
29.09.2013 15:40 20,6 C 18,3 C 48 % 1008,0 hPa 0,0 l/m 2 min 0 min 1,3 UV-I 438 W/m 10,3 km/h (2 Bft)
29.09.2013 15:42 20,7 C 18,3 C 49 % 1008,0 hPa 0,0 l/m 2 min 0 min 1,2 UV-I 432 W/m 0,0 km/h (0 Bft)
29.09.2013 15:44 20,7 C 18,3 C 48 % 1008,0 hPa 0,0 l/m 2 min 0 min 1,2 UV-I 432 W/m 12,9 km/h (3 Bft)
29.09.2013 15:46 20,6 C 18,3 C 48 % 1008,0 hPa 0,0 l/m 2 min 0 min 1,2 UV-I 429 W/m 23,2 km/h (4 Bft)
29.09.2013 15:48 20,5 C 18,3 C 49 % 1008,1 hPa 0,0 l/m 2 min 0 min 1,2 UV-I 424 W/m 10,3 km/h (2 Bft)
29.09.2013 15:50 20,4 C 18,3 C 51 % 1008,0 hPa 0,0 l/m 2 min 0 min 1,1 UV-I 420 W/m 2,6 km/h (1 Bft)
29.09.2013 15:52 20,5 C 18,3 C 49 % 1008,0 hPa 0,0 l/m 2 min 0 min 1,1 UV-I 417 W/m 20,6 km/h (4 Bft)
29.09.2013 15:54 20,5 C 18,3 C 49 % 1008,0 hPa 0,0 l/m 2 min 0 min 1,1 UV-I 411 W/m 7,7 km/h (2 Bft)
29.09.2013 15:56 20,6 C 18,3 C 48 % 1008,0 hPa 0,0 l/m 2 min 0 min 1,1 UV-I 411 W/m 18,0 km/h (3 Bft)
29.09.2013 15:58 20,6 C 18,3 C 48 % 1008,0 hPa 0,0 l/m 2 min 0 min 1,1 UV-I 408 W/m 10,3 km/h (2 Bft)
29.09.2013 16:00 20,6 C 18,3 C 48 % 1008,0 hPa 0,0 l/m 2 min 0 min 1,0 UV-I 401 W/m 15,4 km/h (3 Bft)
29.09.2013 16:02 20,6 C 18,3 C 50 % 1008,0 hPa 0,0 l/m 2 min 0 min 1,0 UV-I 397 W/m 15,4 km/h (3 Bft)
29.09.2013 16:06 20,4 C 18,3 C 49 % 1008,0 hPa 0,0 l/m 2 min 0 min 1,0 UV-I 392 W/m 18,0 km/h (3 Bft)
29.09.2013 16:08 20,3 C 18,3 C 49 % 1008,0 hPa 0,0 l/m 2 min 0 min 0,9 UV-I 388 W/m 20,6 km/h (4 Bft)
29.09.2013 16:10 20,3 C 18,3 C 49 % 1007,9 hPa 0,0 l/m 2 min 0 min 0,9 UV-I 387 W/m 10,3 km/h (2 Bft)
29.09.2013 16:12 20,4 C 18,3 C 50 % 1008,0 hPa 0,0 l/m 2 min 0 min 0,9 UV-I 381 W/m 12,9 km/h (3 Bft)
29.09.2013 16:14 20,5 C 18,3 C 50 % 1008,0 hPa 0,0 l/m 2 min 0 min 0,9 UV-I 378 W/m 10,3 km/h (2 Bft)
29.09.2013 16:16 20,6 C 18,3 C 49 % 1008,0 hPa 0,0 l/m 2 min 0 min 0,8 UV-I 376 W/m 12,9 km/h (3 Bft)
29.09.2013 16:18 20,6 C 18,3 C 48 % 1007,9 hPa 0,0 l/m 2 min 0 min 0,8 UV-I 369 W/m 5,1 km/h (1 Bft)
29.09.2013 16:20 20,6 C 18,3 C 47 % 1007,9 hPa 0,0 l/m 2 min 0 min 0,8 UV-I 366 W/m 18,0 km/h (3 Bft)
29.09.2013 16:22 20,6 C 18,3 C 48 % 1008,0 hPa 0,0 l/m 2 min 0 min 0,8 UV-I 364 W/m 7,7 km/h (2 Bft)
29.09.2013 16:24 20,7 C 18,3 C 48 % 1007,9 hPa 0,0 l/m 2 min 0 min 0,7 UV-I 355 W/m 15,4 km/h (3 Bft)
29.09.2013 16:26 20,8 C 18,3 C 49 % 1007,9 hPa 0,0 l/m 2 min 0 min 0,7 UV-I 353 W/m 18,0 km/h (3 Bft)
29.09.2013 16:28 20,7 C 18,3 C 48 % 1007,9 hPa 0,0 l/m 2 min 0 min 0,7 UV-I 352 W/m 18,0 km/h (3 Bft)
29.09.2013 16:30 20,7 C 18,3 C 48 % 1007,9 hPa 0,0 l/m 2 min 0 min 0,7 UV-I 346 W/m 12,9 km/h (3 Bft)
29.09.2013 16:32 20,7 C 18,3 C 47 % 1007,9 hPa 0,0 l/m 2 min 0 min 0,7 UV-I 345 W/m 12,9 km/h (3 Bft)
29.09.2013 16:34 20,6 C 18,3 C 50 % 1007,9 hPa 0,0 l/m 2 min 0 min 0,6 UV-I 339 W/m 5,1 km/h (1 Bft)
29.09.2013 16:36 20,7 C 18,3 C 47 % 1007,9 hPa 0,0 l/m 2 min 0 min 0,6 UV-I 334 W/m 15,4 km/h (3 Bft)
29.09.2013 16:38 20,6 C 18,3 C 46 % 1007,9 hPa 0,0 l/m 2 min 0 min 0,6 UV-I 330 W/m 15,4 km/h (3 Bft)
29.09.2013 16:40 20,6 C 18,3 C 48 % 1007,9 hPa 0,0 l/m 2 min 0 min 0,6 UV-I 327 W/m 18,0 km/h (3 Bft)
29.09.2013 16:42 20,4 C 18,3 C 46 % 1007,8 hPa 0,0 l/m 2 min 0 min 0,5 UV-I 322 W/m 18,0 km/h (3 Bft)
29.09.2013 16:44 20,4 C 18,3 C 47 % 1007,8 hPa 0,0 l/m 2 min 0 min 0,5 UV-I 316 W/m 15,4 km/h (3 Bft)
29.09.2013 16:46 20,4 C 18,3 C 47 % 1007,9 hPa 0,0 l/m 2 min 0 min 0,5 UV-I 311 W/m 15,4 km/h (3 Bft)
29.09.2013 16:48 20,4 C 18,3 C 47 % 1007,9 hPa 0,0 l/m 2 min 0 min 0,5 UV-I 309 W/m 18,0 km/h (3 Bft)
29.09.2013 16:50 20,4 C 18,3 C 47 % 1007,9 hPa 0,0 l/m 2 min 0 min 0,5 UV-I 304 W/m 12,9 km/h (3 Bft)
29.09.2013 16:52 20,4 C 18,3 C 47 % 1007,8 hPa 0,0 l/m 2 min 0 min 0,0 UV-I 301 W/m 7,7 km/h (2 Bft)
29.09.2013 16:54 20,4 C 18,3 C 48 % 1007,8 hPa 0,0 l/m 2 min 0 min 0,0 UV-I 297 W/m 7,7 km/h (2 Bft)
29.09.2013 16:56 20,5 C 18,3 C 50 % 1007,8 hPa 0,0 l/m 2 min 0 min 0,0 UV-I 292 W/m 0,0 km/h (0 Bft)
29.09.2013 16:58 20,4 C 18,3 C 49 % 1007,8 hPa 0,0 l/m 2 min 0 min 0,0 UV-I 287 W/m 2,6 km/h (1 Bft)
29.09.2013 17:00 20,3 C 17,8 C 49 % 1007,8 hPa 0,0 l/m 2 min 0 min 0,0 UV-I 281 W/m 15,4 km/h (3 Bft)
29.09.2013 17:02 20,2 C 17,8 C 50 % 1007,9 hPa 0,0 l/m 2 min 0 min 0,0 UV-I 279 W/m 10,3 km/h (2 Bft)
29.09.2013 17:06 20,2 C 17,8 C 50 % 1007,8 hPa 0,0 l/m 2 min 0 min 0,0 UV-I 269 W/m 20,6 km/h (4 Bft)
29.09.2013 17:08 20,2 C 17,8 C 47 % 1007,8 hPa 0,0 l/m 2 min 0 min 0,0 UV-I 264 W/m 18,0 km/h (3 Bft)
29.09.2013 17:10 20,1 C 17,8 C 47 % 1007,9 hPa 0,0 l/m 2 min 0 min 0,0 UV-I 258 W/m 18,0 km/h (3 Bft)
29.09.2013 17:12 20,1 C 17,8 C 49 % 1007,8 hPa 0,0 l/m 2 min 0 min 0,0 UV-I 255 W/m 7,7 km/h (2 Bft)
29.09.2013 17:14 20,1 C 17,8 C 50 % 1007,9 hPa 0,0 l/m 2 min 0 min 0,0 UV-I 253 W/m 2,6 km/h (1 Bft)
29.09.2013 17:16 20,0 C 17,8 C 49 % 1007,8 hPa 0,0 l/m 2 min 0 min 0,0 UV-I 246 W/m 15,4 km/h (3 Bft)
29.09.2013 17:18 19,9 C 17,8 C 49 % 1007,8 hPa 0,0 l/m 2 min 0 min 0,0 UV-I 243 W/m 12,9 km/h (3 Bft)
29.09.2013 17:20 19,8 C 17,8 C 50 % 1007,8 hPa 0,0 l/m 2 min 0 min 0,0 UV-I 239 W/m 12,9 km/h (3 Bft)
29.09.2013 17:22 19,9 C 17,8 C 49 % 1007,8 hPa 0,0 l/m 2 min 0 min 0,0 UV-I 234 W/m 7,7 km/h (2 Bft)
29.09.2013 17:24 19,9 C 17,8 C 49 % 1007,8 hPa 0,0 l/m 2 min 0 min 0,0 UV-I 229 W/m 7,7 km/h (2 Bft)
29.09.2013 17:26 19,9 C 17,8 C 49 % 1007,8 hPa 0,0 l/m 2 min 0 min 0,0 UV-I 225 W/m 5,1 km/h (1 Bft)
29.09.2013 17:28 20,0 C 17,2 C 49 % 1007,8 hPa 0,0 l/m 2 min 0 min 0,0 UV-I 218 W/m 12,9 km/h (3 Bft)
29.09.2013 17:30 20,0 C 17,2 C 49 % 1007,8 hPa 0,0 l/m 2 min 0 min 0,0 UV-I 214 W/m 7,7 km/h (2 Bft)
29.09.2013 17:32 19,9 C 17,2 C 49 % 1007,7 hPa 0,0 l/m 2 min 0 min 0,0 UV-I 209 W/m 7,7 km/h (2 Bft)
29.09.2013 17:34 19,9 C 17,2 C 50 % 1007,8 hPa 0,0 l/m 2 min 0 min 0,0 UV-I 202 W/m 2,6 km/h (1 Bft)
29.09.2013 17:36 19,8 C 17,2 C 49 % 1007,8 hPa 0,0 l/m 2 min 0 min 0,0 UV-I 197 W/m 12,9 km/h (3 Bft)
29.09.2013 17:38 19,8 C 17,2 C 49 % 1007,8 hPa 0,0 l/m 2 min 0 min 0,0 UV-I 193 W/m 7,7 km/h (2 Bft)
29.09.2013 17:40 19,7 C 17,2 C 50 % 1007,8 hPa 0,0 l/m 2 min 0 min 0,0 UV-I 186 W/m 2,6 km/h (1 Bft)
29.09.2013 17:42 19,7 C 17,2 C 51 % 1007,8 hPa 0,0 l/m 2 min 0 min 0,0 UV-I 183 W/m 15,4 km/h (3 Bft)
29.09.2013 17:44 19,6 C 17,2 C 51 % 1007,8 hPa 0,0 l/m 2 min 0 min 0,0 UV-I 178 W/m 10,3 km/h (2 Bft)
29.09.2013 17:46 19,5 C 17,2 C 50 % 1007,8 hPa 0,0 l/m 2 min 0 min 0,0 UV-I 172 W/m 12,9 km/h (3 Bft)
29.09.2013 17:48 19,4 C 17,2 C 51 % 1007,8 hPa 0,0 l/m 2 min 0 min 0,0 UV-I 167 W/m 2,6 km/h (1 Bft)
29.09.2013 17:50 19,4 C 16,7 C 51 % 1007,8 hPa 0,0 l/m 2 min 0 min 0,0 UV-I 162 W/m 0,0 km/h (0 Bft)
29.09.2013 17:52 19,3 C 16,7 C 51 % 1007,8 hPa 0,0 l/m 2 min 0 min 0,0 UV-I 158 W/m 10,3 km/h (2 Bft)
29.09.2013 17:54 19,3 C 16,7 C 51 % 1007,9 hPa 0,0 l/m 2 min 0 min 0,0 UV-I 155 W/m 7,7 km/h (2 Bft)
29.09.2013 17:56 19,2 C 16,7 C 51 % 1007,9 hPa 0,0 l/m 2 min 0 min 0,0 UV-I 148 W/m 18,0 km/h (3 Bft)
29.09.2013 17:58 19,2 C 16,7 C 51 % 1007,8 hPa 0,0 l/m 2 min 0 min 0,0 UV-I 137 W/m 7,7 km/h (2 Bft)
29.09.2013 18:00 19,1 C 16,7 C 52 % 1007,9 hPa 0,0 l/m 2 min 0 min 0,0 UV-I 132 W/m 10,3 km/h (2 Bft)
29.09.2013 18:02 19,0 C 16,7 C 52 % 1007,9 hPa 0,0 l/m 2 min 0 min 0,0 UV-I 114 W/m 2,6 km/h (1 Bft)
29.09.2013 18:06 18,8 C 16,1 C 53 % 1007,9 hPa 0,0 l/m 2 min 0 min 0,0 UV-I 116 W/m 10,3 km/h (2 Bft)
29.09.2013 18:08 18,8 C 16,1 C 53 % 1007,9 hPa 0,0 l/m 2 min 0 min 0,0 UV-I 109 W/m 15,4 km/h (3 Bft)
29.09.2013 18:10 18,7 C 16,1 C 53 % 1007,9 hPa 0,0 l/m 2 min 0 min 0,0 UV-I 102 W/m 10,3 km/h (2 Bft)
29.09.2013 18:12 18,7 C 16,1 C 54 % 1007,9 hPa 0,0 l/m 2 min 0 min 0,0 UV-I 98 W/m 12,9 km/h (3 Bft)
29.09.2013 18:14 18,6 C 16,1 C 53 % 1007,9 hPa 0,0 l/m 2 min 0 min 0,0 UV-I 95 W/m 7,7 km/h (2 Bft)
29.09.2013 18:16 18,6 C 16,1 C 54 % 1007,9 hPa 0,0 l/m 2 min 0 min 0,0 UV-I 86 W/m 10,3 km/h (2 Bft)
29.09.2013 18:18 18,5 C 16,1 C 53 % 1007,9 hPa 0,0 l/m 2 min 0 min 0,0 UV-I 83 W/m 12,9 km/h (3 Bft)
29.09.2013 18:20 18,5 C 16,1 C 54 % 1007,9 hPa 0,0 l/m 0 min 0 min 0,0 UV-I 72 W/m 15,4 km/h (3 Bft)
29.09.2013 18:22 18,4 C 16,1 C 54 % 1007,9 hPa 0,0 l/m 0 min 0 min 0,0 UV-I 37 W/m 7,7 km/h (2 Bft)
29.09.2013 18:24 18,4 C 16,1 C 54 % 1007,9 hPa 0,0 l/m 0 min 0 min 0,0 UV-I 51 W/m 12,9 km/h (3 Bft)
29.09.2013 18:26 18,3 C 16,1 C 54 % 1007,9 hPa 0,0 l/m 0 min 0 min 0,0 UV-I 32 W/m 20,6 km/h (4 Bft)
29.09.2013 18:28 18,4 C 16,1 C 55 % 1008,0 hPa 0,0 l/m 0 min 0 min 0,0 UV-I 58 W/m 0,0 km/h (0 Bft)
29.09.2013 18:30 18,3 C 15,6 C 55 % 1008,0 hPa 0,0 l/m 0 min 0 min 0,0 UV-I 39 W/m 2,6 km/h (1 Bft)
29.09.2013 18:32 18,2 C 15,6 C 56 % 1008,0 hPa 0,0 l/m 0 min 0 min 0,0 UV-I 33 W/m 0,0 km/h (0 Bft)
29.09.2013 18:34 18,2 C 15,6 C 55 % 1008,0 hPa 0,0 l/m 0 min 0 min 0,0 UV-I 28 W/m 2,6 km/h (1 Bft)
29.09.2013 18:36 18,1 C 15,6 C 56 % 1008,0 hPa 0,0 l/m 0 min 0 min 0,0 UV-I 21 W/m 0,0 km/h (0 Bft)
29.09.2013 18:38 18,0 C 15,6 C 56 % 1008,0 hPa 0,0 l/m 0 min 0 min 0,0 UV-I 19 W/m 2,6 km/h (1 Bft)
29.09.2013 18:40 17,8 C 15,0 C 57 % 1008,0 hPa 0,0 l/m 0 min 0 min 0,0 UV-I 18 W/m 0,0 km/h (0 Bft)
29.09.2013 18:42 17,7 C 15,0 C 56 % 1008,0 hPa 0,0 l/m 0 min 0 min 0,0 UV-I 18 W/m 2,6 km/h (1 Bft)
29.09.2013 18:44 17,7 C 15,0 C 56 % 1008,0 hPa 0,0 l/m 0 min 0 min 0,0 UV-I 16 W/m 2,6 km/h (1 Bft)
29.09.2013 18:46 17,7 C 15,0 C 56 % 1008,0 hPa 0,0 l/m 0 min 0 min 0,0 UV-I 16 W/m 10,3 km/h (2 Bft)
29.09.2013 18:48 17,7 C 15,0 C 56 % 1008,1 hPa 0,0 l/m 0 min 0 min 0,0 UV-I 14 W/m 0,0 km/h (0 Bft)
29.09.2013 18:50 17,6 C 15,0 C 56 % 1008,2 hPa 0,0 l/m 0 min 0 min 0,0 UV-I 14 W/m 10,3 km/h (2 Bft)
29.09.2013 18:52 17,5 C 15,0 C 56 % 1008,2 hPa 0,0 l/m 0 min 0 min 0,0 UV-I 12 W/m 0,0 km/h (0 Bft)
29.09.2013 18:54 17,4 C 15,0 C 57 % 1008,3 hPa 0,0 l/m 0 min 0 min 0,0 UV-I 12 W/m 0,0 km/h (0 Bft)
29.09.2013 18:56 17,2 C 14,4 C 59 % 1008,2 hPa 0,0 l/m 0 min 0 min 0,0 UV-I 12 W/m 0,0 km/h (0 Bft)
29.09.2013 18:58 17,0 C 14,4 C 59 % 1008,2 hPa 0,0 l/m 0 min 0 min 0,0 UV-I 11 W/m 0,0 km/h (0 Bft)
29.09.2013 19:00 16,9 C 14,4 C 59 % 1008,3 hPa 0,0 l/m 0 min 0 min 0,0 UV-I 11 W/m 2,6 km/h (1 Bft)
29.09.2013 19:02 16,8 C 13,9 C 60 % 1008,3 hPa 0,0 l/m 0 min 0 min 0,0 UV-I 9 W/m 0,0 km/h (0 Bft)
29.09.2013 19:06 16,4 C 13,9 C 62 % 1008,3 hPa 0,0 l/m 0 min 0 min 0,0 UV-I 7 W/m 0,0 km/h (0 Bft)
29.09.2013 19:08 16,2 C 13,9 C 63 % 1008,3 hPa 0,0 l/m 0 min 0 min 0,0 UV-I 7 W/m 0,0 km/h (0 Bft)
29.09.2013 19:10 16,1 C 13,3 C 64 % 1008,4 hPa 0,0 l/m 0 min 0 min 0,0 UV-I 7 W/m 0,0 km/h (0 Bft)
29.09.2013 19:12 15,9 C 13,3 C 64 % 1008,3 hPa 0,0 l/m 0 min 0 min 0,0 UV-I 5 W/m 0,0 km/h (0 Bft)
29.09.2013 19:14 15,8 C 13,3 C 64 % 1008,4 hPa 0,0 l/m 0 min 0 min 0,0 UV-I 5 W/m 0,0 km/h (0 Bft)
29.09.2013 19:16 15,8 C 13,3 C 64 % 1008,4 hPa 0,0 l/m 0 min 0 min 0,0 UV-I 5 W/m 0,0 km/h (0 Bft)
29.09.2013 19:18 15,7 C 13,3 C 65 % 1008,4 hPa 0,0 l/m 0 min 0 min 0,0 UV-I 5 W/m 0,0 km/h (0 Bft)
29.09.2013 19:20 15,7 C 13,3 C 64 % 1008,4 hPa 0,0 l/m 0 min 0 min 0,0 UV-I 0 W/m 0,0 km/h (0 Bft)
29.09.2013 19:22 15,7 C 13,3 C 64 % 1008,4 hPa 0,0 l/m 0 min 0 min 0,0 UV-I 0 W/m 0,0 km/h (0 Bft)
29.09.2013 19:24 15,6 C 13,3 C 64 % 1008,4 hPa 0,0 l/m 0 min 0 min 0,0 UV-I 0 W/m 0,0 km/h (0 Bft)
29.09.2013 19:26 15,5 C 12,8 C 65 % 1008,4 hPa 0,0 l/m 0 min 0 min 0,0 UV-I 0 W/m 0,0 km/h (0 Bft)
29.09.2013 19:28 15,4 C 12,8 C 64 % 1008,4 hPa 0,0 l/m 0 min 0 min 0,0 UV-I 0 W/m 0,0 km/h (0 Bft)
29.09.2013 19:30 15,4 C 12,8 C 64 % 1008,5 hPa 0,0 l/m 0 min 0 min 0,0 UV-I 0 W/m 7,7 km/h (2 Bft)
29.09.2013 19:32 15,4 C 12,8 C 64 % 1008,5 hPa 0,0 l/m 0 min 0 min 0,0 UV-I 0 W/m 0,0 km/h (0 Bft)
29.09.2013 19:34 15,4 C 12,8 C 64 % 1008,5 hPa 0,0 l/m 0 min 0 min 0,0 UV-I 0 W/m 0,0 km/h (0 Bft)
29.09.2013 19:36 15,4 C 12,8 C 65 % 1008,5 hPa 0,0 l/m 0 min 0 min 0,0 UV-I 0 W/m 0,0 km/h (0 Bft)
29.09.2013 19:38 15,3 C 12,8 C 65 % 1008,5 hPa 0,0 l/m 0 min 0 min 0,0 UV-I 0 W/m 0,0 km/h (0 Bft)
29.09.2013 19:40 15,2 C 12,8 C 66 % 1008,5 hPa 0,0 l/m 0 min 0 min 0,0 UV-I 0 W/m 0,0 km/h (0 Bft)
29.09.2013 19:42 15,0 C 12,8 C 66 % 1008,5 hPa 0,0 l/m 0 min 0 min 0,0 UV-I 0 W/m 0,0 km/h (0 Bft)
29.09.2013 19:44 14,9 C 12,2 C 66 % 1008,6 hPa 0,0 l/m 0 min 0 min 0,0 UV-I 0 W/m 0,0 km/h (0 Bft)
29.09.2013 19:46 14,8 C 12,2 C 67 % 1008,6 hPa 0,0 l/m 0 min 0 min 0,0 UV-I 0 W/m 0,0 km/h (0 Bft)
29.09.2013 19:48 14,8 C 12,2 C 67 % 1008,6 hPa 0,0 l/m 0 min 0 min 0,0 UV-I 0 W/m 0,0 km/h (0 Bft)
29.09.2013 19:50 14,7 C 12,2 C 67 % 1008,7 hPa 0,0 l/m 0 min 0 min 0,0 UV-I 0 W/m 2,6 km/h (1 Bft)
29.09.2013 19:52 14,7 C 12,2 C 67 % 1008,6 hPa 0,0 l/m 0 min 0 min 0,0 UV-I 0 W/m 0,0 km/h (0 Bft)
29.09.2013 19:54 14,6 C 12,2 C 68 % 1008,7 hPa 0,0 l/m 0 min 0 min 0,0 UV-I 0 W/m 0,0 km/h (0 Bft)
29.09.2013 19:56 14,4 C 12,2 C 68 % 1008,8 hPa 0,0 l/m 0 min 0 min 0,0 UV-I 0 W/m 0,0 km/h (0 Bft)
29.09.2013 19:58 14,3 C 11,7 C 68 % 1008,8 hPa 0,0 l/m 0 min 0 min 0,0 UV-I 0 W/m 0,0 km/h (0 Bft)
29.09.2013 20:00 14,2 C 11,7 C 69 % 1008,8 hPa 0,0 l/m 0 min 0 min 0,0 UV-I 0 W/m 0,0 km/h (0 Bft)
29.09.2013 20:02 14,2 C 11,7 C 69 % 1008,7 hPa 0,0 l/m 0 min 0 min 0,0 UV-I 0 W/m 0,0 km/h (0 Bft)
29.09.2013 20:06 14,1 C 11,7 C 70 % 1008,8 hPa 0,0 l/m 0 min 0 min 0,0 UV-I 0 W/m 5,1 km/h (1 Bft)
29.09.2013 20:08 14,0 C 11,7 C 70 % 1008,8 hPa 0,0 l/m 0 min 0 min 0,0 UV-I 0 W/m 2,6 km/h (1 Bft)
29.09.2013 20:10 13,9 C 11,7 C 70 % 1008,8 hPa 0,0 l/m 0 min 0 min 0,0 UV-I 0 W/m 0,0 km/h (0 Bft)
29.09.2013 20:12 13,9 C 11,7 C 70 % 1008,8 hPa 0,0 l/m 0 min 0 min 0,0 UV-I 0 W/m 2,6 km/h (1 Bft)
29.09.2013 20:14 14,0 C 11,7 C 70 % 1008,8 hPa 0,0 l/m 0 min 0 min 0,0 UV-I 0 W/m 0,0 km/h (0 Bft)
29.09.2013 20:16 13,9 C 11,7 C 70 % 1008,8 hPa 0,0 l/m 0 min 0 min 0,0 UV-I 0 W/m 7,7 km/h (2 Bft)
29.09.2013 20:18 13,9 C 11,7 C 70 % 1008,8 hPa 0,0 l/m 0 min 0 min 0,0 UV-I 0 W/m 0,0 km/h (0 Bft)
29.09.2013 20:20 13,9 C 11,7 C 70 % 1008,9 hPa 0,0 l/m 0 min 0 min 0,0 UV-I 0 W/m 2,6 km/h (1 Bft)
29.09.2013 20:22 13,9 C 11,7 C 70 % 1008,9 hPa 0,0 l/m 0 min 0 min 0,0 UV-I 0 W/m 0,0 km/h (0 Bft)
29.09.2013 20:24 13,9 C 11,7 C 70 % 1008,8 hPa 0,0 l/m 0 min 0 min 0,0 UV-I 0 W/m 0,0 km/h (0 Bft)
29.09.2013 20:26 13,8 C 11,7 C 70 % 1008,8 hPa 0,0 l/m 0 min 0 min 0,0 UV-I 0 W/m 2,6 km/h (1 Bft)
29.09.2013 20:28 13,7 C 11,7 C 70 % 1008,9 hPa 0,0 l/m 0 min 0 min 0,0 UV-I 0 W/m 0,0 km/h (0 Bft)
29.09.2013 20:30 13,7 C 11,7 C 70 % 1008,9 hPa 0,0 l/m 0 min 0 min 0,0 UV-I 0 W/m 0,0 km/h (0 Bft)
29.09.2013 20:32 13,7 C 11,7 C 70 % 1008,9 hPa 0,0 l/m 0 min 0 min 0,0 UV-I 0 W/m 2,6 km/h (1 Bft)
29.09.2013 20:34 13,7 C 11,7 C 70 % 1008,9 hPa 0,0 l/m 0 min 0 min 0,0 UV-I 0 W/m 2,6 km/h (1 Bft)
29.09.2013 20:36 13,7 C 11,7 C 70 % 1008,9 hPa 0,0 l/m 0 min 0 min 0,0 UV-I 0 W/m 7,7 km/h (2 Bft)
29.09.2013 20:38 13,7 C 11,7 C 70 % 1009,0 hPa 0,0 l/m 0 min 0 min 0,0 UV-I 0 W/m 0,0 km/h (0 Bft)
29.09.2013 20:40 13,7 C 11,7 C 70 % 1009,0 hPa 0,0 l/m 0 min 0 min 0,0 UV-I 0 W/m 0,0 km/h (0 Bft)
29.09.2013 20:42 13,7 C 11,7 C 70 % 1009,0 hPa 0,0 l/m 0 min 0 min 0,0 UV-I 0 W/m 5,1 km/h (1 Bft)
29.09.2013 20:44 13,7 C 11,7 C 70 % 1009,0 hPa 0,0 l/m 0 min 0 min 0,0 UV-I 0 W/m 2,6 km/h (1 Bft)
29.09.2013 20:46 13,7 C 11,7 C 70 % 1009,0 hPa 0,0 l/m 0 min 0 min 0,0 UV-I 0 W/m 0,0 km/h (0 Bft)
29.09.2013 20:48 13,6 C 11,7 C 70 % 1009,0 hPa 0,0 l/m 0 min 0 min 0,0 UV-I 0 W/m 2,6 km/h (1 Bft)
29.09.2013 20:50 13,6 C 11,7 C 70 % 1009,0 hPa 0,0 l/m 0 min 0 min 0,0 UV-I 0 W/m 0,0 km/h (0 Bft)
29.09.2013 20:52 13,5 C 11,7 C 70 % 1009,0 hPa 0,0 l/m 0 min 0 min 0,0 UV-I 0 W/m 0,0 km/h (0 Bft)
29.09.2013 20:54 13,4 C 11,7 C 71 % 1009,1 hPa 0,0 l/m 0 min 0 min 0,0 UV-I 0 W/m 2,6 km/h (1 Bft)
29.09.2013 20:56 13,4 C 11,7 C 71 % 1009,2 hPa 0,0 l/m 0 min 0 min 0,0 UV-I 0 W/m 0,0 km/h (0 Bft)
29.09.2013 20:58 13,4 C 11,7 C 71 % 1009,2 hPa 0,0 l/m 0 min 0 min 0,0 UV-I 0 W/m 0,0 km/h (0 Bft)
29.09.2013 21:00 13,3 C 11,7 C 71 % 1009,2 hPa 0,0 l/m 0 min 0 min 0,0 UV-I 0 W/m 0,0 km/h (0 Bft)
29.09.2013 21:02 13,2 C 11,7 C 71 % 1009,2 hPa 0,0 l/m 0 min 0 min 0,0 UV-I 0 W/m 0,0 km/h (0 Bft)
29.09.2013 21:06 13,1 C 11,7 C 72 % 1009,2 hPa 0,0 l/m 0 min 0 min 0,0 UV-I 0 W/m 0,0 km/h (0 Bft)
29.09.2013 21:08 13,1 C 11,7 C 72 % 1009,2 hPa 0,0 l/m 0 min 0 min 0,0 UV-I 0 W/m 0,0 km/h (0 Bft)
29.09.2013 21:10 13,1 C 11,1 C 72 % 1009,2 hPa 0,0 l/m 0 min 0 min 0,0 UV-I 0 W/m 0,0 km/h (0 Bft)
29.09.2013 21:12 13,0 C 11,1 C 72 % 1009,3 hPa 0,0 l/m 0 min 0 min 0,0 UV-I 0 W/m 2,6 km/h (1 Bft)
29.09.2013 21:14 12,9 C 11,1 C 72 % 1009,3 hPa 0,0 l/m 0 min 0 min 0,0 UV-I 0 W/m 2,6 km/h (1 Bft)
29.09.2013 21:16 12,9 C 11,1 C 72 % 1009,3 hPa 0,0 l/m 0 min 0 min 0,0 UV-I 0 W/m 0,0 km/h (0 Bft)
29.09.2013 21:18 12,8 C 11,1 C 72 % 1009,4 hPa 0,0 l/m 0 min 0 min 0,0 UV-I 0 W/m 0,0 km/h (0 Bft)
29.09.2013 21:20 12,8 C 11,1 C 73 % 1009,3 hPa 0,0 l/m 0 min 0 min 0,0 UV-I 0 W/m 2,6 km/h (1 Bft)
29.09.2013 21:22 12,8 C 11,1 C 73 % 1009,4 hPa 0,0 l/m 0 min 0 min 0,0 UV-I 0 W/m 0,0 km/h (0 Bft)
29.09.2013 21:24 12,7 C 11,1 C 73 % 1009,4 hPa 0,0 l/m 0 min 0 min 0,0 UV-I 0 W/m 7,7 km/h (2 Bft)
29.09.2013 21:26 12,7 C 11,1 C 73 % 1009,4 hPa 0,0 l/m 0 min 0 min 0,0 UV-I 0 W/m 0,0 km/h (0 Bft)
29.09.2013 21:28 12,7 C 11,1 C 73 % 1009,5 hPa 0,0 l/m 0 min 0 min 0,0 UV-I 0 W/m 2,6 km/h (1 Bft)
29.09.2013 21:30 12,7 C 11,1 C 73 % 1009,4 hPa 0,0 l/m 0 min 0 min 0,0 UV-I 0 W/m 0,0 km/h (0 Bft)
29.09.2013 21:32 12,7 C 11,1 C 73 % 1009,5 hPa 0,0 l/m 0 min 0 min 0,0 UV-I 0 W/m 2,6 km/h (1 Bft)
29.09.2013 21:34 12,7 C 11,1 C 73 % 1009,5 hPa 0,0 l/m 0 min 0 min 0,0 UV-I 0 W/m 0,0 km/h (0 Bft)
29.09.2013 21:36 12,6 C 11,1 C 73 % 1009,5 hPa 0,0 l/m 0 min 0 min 0,0 UV-I 0 W/m 2,6 km/h (1 Bft)
29.09.2013 21:38 12,6 C 11,1 C 73 % 1009,5 hPa 0,0 l/m 0 min 0 min 0,0 UV-I 0 W/m 0,0 km/h (0 Bft)
29.09.2013 21:40 12,6 C 11,1 C 73 % 1009,5 hPa 0,0 l/m 0 min 0 min 0,0 UV-I 0 W/m 5,1 km/h (1 Bft)
29.09.2013 21:42 12,6 C 11,1 C 73 % 1009,6 hPa 0,0 l/m 0 min 0 min 0,0 UV-I 0 W/m 0,0 km/h (0 Bft)
29.09.2013 21:44 12,6 C 11,1 C 73 % 1009,6 hPa 0,0 l/m 0 min 0 min 0,0 UV-I 0 W/m 0,0 km/h (0 Bft)
29.09.2013 21:46 12,5 C 11,1 C 73 % 1009,6 hPa 0,0 l/m 0 min 0 min 0,0 UV-I 0 W/m 0,0 km/h (0 Bft)
29.09.2013 21:48 12,5 C 10,6 C 73 % 1009,6 hPa 0,0 l/m 0 min 0 min 0,0 UV-I 0 W/m 0,0 km/h (0 Bft)
29.09.2013 21:50 12,4 C 10,6 C 73 % 1009,6 hPa 0,0 l/m 0 min 0 min 0,0 UV-I 0 W/m 0,0 km/h (0 Bft)
29.09.2013 21:52 12,4 C 10,6 C 73 % 1009,7 hPa 0,0 l/m 0 min 0 min 0,0 UV-I 0 W/m 0,0 km/h (0 Bft)
29.09.2013 21:54 12,3 C 10,6 C 73 % 1009,7 hPa 0,0 l/m 0 min 0 min 0,0 UV-I 0 W/m 0,0 km/h (0 Bft)
29.09.2013 21:56 12,3 C 10,6 C 73 % 1009,7 hPa 0,0 l/m 0 min 0 min 0,0 UV-I 0 W/m 0,0 km/h (0 Bft)
29.09.2013 21:58 12,3 C 10,6 C 73 % 1009,8 hPa 0,0 l/m 0 min 0 min 0,0 UV-I 0 W/m 0,0 km/h (0 Bft)
29.09.2013 22:00 12,3 C 10,6 C 73 % 1009,8 hPa 0,0 l/m 0 min 0 min 0,0 UV-I 0 W/m 5,1 km/h (1 Bft)
29.09.2013 22:02 12,3 C 10,6 C 73 % 1009,8 hPa 0,0 l/m 0 min 0 min 0,0 UV-I 0 W/m 0,0 km/h (0 Bft)
29.09.2013 22:06 12,2 C 10,6 C 73 % 1009,8 hPa 0,0 l/m 0 min 0 min 0,0 UV-I 0 W/m 0,0 km/h (0 Bft)
29.09.2013 22:08 12,2 C 10,6 C 74 % 1009,8 hPa 0,0 l/m 0 min 0 min 0,0 UV-I 0 W/m 2,6 km/h (1 Bft)
29.09.2013 22:10 12,1 C 10,6 C 74 % 1009,8 hPa 0,0 l/m 0 min 0 min 0,0 UV-I 0 W/m 0,0 km/h (0 Bft)
29.09.2013 22:12 12,1 C 10,6 C 74 % 1009,9 hPa 0,0 l/m 0 min 0 min 0,0 UV-I 0 W/m 0,0 km/h (0 Bft)
29.09.2013 22:14 12,0 C 10,0 C 74 % 1009,8 hPa 0,0 l/m 0 min 0 min 0,0 UV-I 0 W/m 0,0 km/h (0 Bft)
29.09.2013 22:16 11,9 C 10,0 C 74 % 1009,8 hPa 0,0 l/m 0 min 0 min 0,0 UV-I 0 W/m 0,0 km/h (0 Bft)
29.09.2013 22:18 11,9 C 10,0 C 74 % 1009,7 hPa 0,0 l/m 0 min 0 min 0,0 UV-I 0 W/m 0,0 km/h (0 Bft)
29.09.2013 22:20 11,8 C 10,0 C 75 % 1009,8 hPa 0,0 l/m 0 min 0 min 0,0 UV-I 0 W/m 0,0 km/h (0 Bft)
29.09.2013 22:22 11,8 C 10,0 C 75 % 1009,8 hPa 0,0 l/m 0 min 0 min 0,0 UV-I 0 W/m 0,0 km/h (0 Bft)
29.09.2013 22:24 11,8 C 10,0 C 75 % 1009,8 hPa 0,0 l/m 0 min 0 min 0,0 UV-I 0 W/m 0,0 km/h (0 Bft)
29.09.2013 22:26 11,7 C 10,0 C 75 % 1009,8 hPa 0,0 l/m 0 min 0 min 0,0 UV-I 0 W/m 0,0 km/h (0 Bft)
29.09.2013 22:28 11,7 C 10,0 C 75 % 1009,8 hPa 0,0 l/m 0 min 0 min 0,0 UV-I 0 W/m 0,0 km/h (0 Bft)
29.09.2013 22:30 11,6 C 10,0 C 76 % 1009,9 hPa 0,0 l/m 0 min 0 min 0,0 UV-I 0 W/m 0,0 km/h (0 Bft)
29.09.2013 22:32 11,6 C 10,0 C 76 % 1009,8 hPa 0,0 l/m 0 min 0 min 0,0 UV-I 0 W/m 0,0 km/h (0 Bft)
29.09.2013 22:34 11,6 C 10,0 C 76 % 1009,9 hPa 0,0 l/m 0 min 0 min 0,0 UV-I 0 W/m 2,6 km/h (1 Bft)
29.09.2013 22:36 11,6 C 10,0 C 76 % 1009,8 hPa 0,0 l/m 0 min 0 min 0,0 UV-I 0 W/m 0,0 km/h (0 Bft)
29.09.2013 22:38 11,5 C 10,0 C 76 % 1009,9 hPa 0,0 l/m 0 min 0 min 0,0 UV-I 0 W/m 2,6 km/h (1 Bft)
29.09.2013 22:40 11,5 C 10,0 C 76 % 1009,9 hPa 0,0 l/m 0 min 0 min 0,0 UV-I 0 W/m 0,0 km/h (0 Bft)
29.09.2013 22:42 11,5 C 10,0 C 76 % 1009,9 hPa 0,0 l/m 0 min 0 min 0,0 UV-I 0 W/m 2,6 km/h (1 Bft)
29.09.2013 22:44 11,4 C 10,0 C 76 % 1010,0 hPa 0,0 l/m 0 min 0 min 0,0 UV-I 0 W/m 0,0 km/h (0 Bft)
29.09.2013 22:46 11,4 C 10,0 C 76 % 1010,0 hPa 0,0 l/m 0 min 0 min 0,0 UV-I 0 W/m 5,1 km/h (1 Bft)
29.09.2013 22:48 11,4 C 10,0 C 76 % 1010,0 hPa 0,0 l/m 0 min 0 min 0,0 UV-I 0 W/m 0,0 km/h (0 Bft)
29.09.2013 22:50 11,4 C 10,0 C 76 % 1010,0 hPa 0,0 l/m 0 min 0 min 0,0 UV-I 0 W/m 0,0 km/h (0 Bft)
29.09.2013 22:52 11,4 C 10,0 C 76 % 1010,0 hPa 0,0 l/m 0 min 0 min 0,0 UV-I 0 W/m 0,0 km/h (0 Bft)
29.09.2013 22:54 11,4 C 10,0 C 76 % 1010,0 hPa 0,0 l/m 0 min 0 min 0,0 UV-I 0 W/m 0,0 km/h (0 Bft)
29.09.2013 22:56 11,4 C 10,0 C 75 % 1010,0 hPa 0,0 l/m 0 min 0 min 0,0 UV-I 0 W/m 0,0 km/h (0 Bft)
29.09.2013 22:58 11,3 C 10,0 C 76 % 1010,1 hPa 0,0 l/m 0 min 0 min 0,0 UV-I 0 W/m 0,0 km/h (0 Bft)
29.09.2013 23:00 11,3 C 9,4 C 76 % 1010,1 hPa 0,0 l/m 0 min 0 min 0,0 UV-I 0 W/m 0,0 km/h (0 Bft)
29.09.2013 23:02 11,2 C 9,4 C 76 % 1010,1 hPa 0,0 l/m 0 min 0 min 0,0 UV-I 0 W/m 0,0 km/h (0 Bft)
29.09.2013 23:06 10,9 C 8,9 C 77 % 1010,1 hPa 0,0 l/m 0 min 0 min 0,0 UV-I 0 W/m 0,0 km/h (0 Bft)
29.09.2013 23:08 10,8 C 8,9 C 78 % 1010,0 hPa 0,0 l/m 0 min 0 min 0,0 UV-I 0 W/m 0,0 km/h (0 Bft)
29.09.2013 23:10 10,7 C 8,9 C 78 % 1010,1 hPa 0,0 l/m 0 min 0 min 0,0 UV-I 0 W/m 0,0 km/h (0 Bft)
29.09.2013 23:12 10,5 C 8,9 C 79 % 1010,0 hPa 0,0 l/m 0 min 0 min 0,0 UV-I 0 W/m 0,0 km/h (0 Bft)
29.09.2013 23:14 10,4 C 8,9 C 79 % 1010,0 hPa 0,0 l/m 0 min 0 min 0,0 UV-I 0 W/m 0,0 km/h (0 Bft)
29.09.2013 23:16 10,4 C 8,9 C 79 % 1010,0 hPa 0,0 l/m 0 min 0 min 0,0 UV-I 0 W/m 2,6 km/h (1 Bft)
29.09.2013 23:18 10,4 C 8,9 C 79 % 1010,0 hPa 0,0 l/m 0 min 0 min 0,0 UV-I 0 W/m 2,6 km/h (1 Bft)
29.09.2013 23:20 10,4 C 8,9 C 79 % 1010,0 hPa 0,0 l/m 0 min 0 min 0,0 UV-I 0 W/m 0,0 km/h (0 Bft)
29.09.2013 23:22 10,4 C 8,9 C 79 % 1010,1 hPa 0,0 l/m 0 min 0 min 0,0 UV-I 0 W/m 0,0 km/h (0 Bft)
29.09.2013 23:24 10,5 C 8,9 C 79 % 1010,0 hPa 0,0 l/m 0 min 0 min 0,0 UV-I 0 W/m 0,0 km/h (0 Bft)
29.09.2013 23:26 10,4 C 8,9 C 79 % 1010,1 hPa 0,0 l/m 0 min 0 min 0,0 UV-I 0 W/m 0,0 km/h (0 Bft)
29.09.2013 23:28 10,4 C 8,9 C 79 % 1009,9 hPa 0,0 l/m 0 min 0 min 0,0 UV-I 0 W/m 0,0 km/h (0 Bft)
29.09.2013 23:30 10,4 C 8,9 C 79 % 1009,9 hPa 0,0 l/m 0 min 0 min 0,0 UV-I 0 W/m 5,1 km/h (1 Bft)
29.09.2013 23:32 10,4 C 8,9 C 79 % 1010,0 hPa 0,0 l/m 0 min 0 min 0,0 UV-I 0 W/m 0,0 km/h (0 Bft)
29.09.2013 23:34 10,5 C 8,9 C 78 % 1010,0 hPa 0,0 l/m 0 min 0 min 0,0 UV-I 0 W/m 0,0 km/h (0 Bft)
29.09.2013 23:36 10,4 C 8,9 C 79 % 1010,0 hPa 0,0 l/m 0 min 0 min 0,0 UV-I 0 W/m 0,0 km/h (0 Bft)
29.09.2013 23:38 10,4 C 8,9 C 79 % 1010,2 hPa 0,0 l/m 0 min 0 min 0,0 UV-I 0 W/m 0,0 km/h (0 Bft)
29.09.2013 23:40 10,4 C 8,9 C 79 % 1010,1 hPa 0,0 l/m 0 min 0 min 0,0 UV-I 0 W/m 0,0 km/h (0 Bft)
29.09.2013 23:42 10,4 C 8,9 C 79 % 1010,1 hPa 0,0 l/m 0 min 0 min 0,0 UV-I 0 W/m 0,0 km/h (0 Bft)
29.09.2013 23:44 10,3 C 8,9 C 79 % 1010,0 hPa 0,0 l/m 0 min 0 min 0,0 UV-I 0 W/m 2,6 km/h (1 Bft)
29.09.2013 23:46 10,3 C 8,9 C 79 % 1009,9 hPa 0,0 l/m 0 min 0 min 0,0 UV-I 0 W/m 0,0 km/h (0 Bft)
29.09.2013 23:48 10,3 C 8,9 C 79 % 1010,1 hPa 0,0 l/m 0 min 0 min 0,0 UV-I 0 W/m 0,0 km/h (0 Bft)
29.09.2013 23:50 10,3 C 8,9 C 79 % 1010,1 hPa 0,0 l/m 0 min 0 min 0,0 UV-I 0 W/m 0,0 km/h (0 Bft)
29.09.2013 23:52 10,3 C 8,9 C 79 % 1010,1 hPa 0,0 l/m 0 min 0 min 0,0 UV-I 0 W/m 0,0 km/h (0 Bft)
29.09.2013 23:54 10,3 C 8,9 C 79 % 1010,0 hPa 0,0 l/m 0 min 0 min 0,0 UV-I 0 W/m 0,0 km/h (0 Bft)
29.09.2013 23:56 10,2 C 8,9 C 79 % 1010,1 hPa 0,0 l/m 0 min 0 min 0,0 UV-I 0 W/m 0,0 km/h (0 Bft)
29.09.2013 23:58 10,2 C 8,9 C 79 % 1010,1 hPa 0,0 l/m 0 min 0 min 0,0 UV-I 0 W/m 0,0 km/h (0 Bft)
_ Min-Zeit 07:06 07:02 16:38 17:32 - - - - - 00:00
Minimum _ 7,6 C 6,1 C 46 % 1007,7 hPa - - - - - 0,0 km/h (0 Bft)
_ Max-Zeit 16:26 14:36 05:24 00:02 00:00 08:36 00:00 13:34 13:26 14:52
Maximum _ 20,8 C 18,3 C 91 % 1010,8 hPa 0,0 l/m 2 min 0 min 2,1 UV-I 552 W/m 25,7 km/h
S-SO (4 Bft)
Durchschnitt _ 13,0 C 11,4 C 72 % 1009,2 hPa #0,0 l/m #9:24 h #0 min. 1,4 UV-I 318 W/m 5,1 km/h (1 Bft)
© 2013 W. Hausmann